2016 Cux-Wetter.de -Die Nutzung der Wetterdaten nur mit ausdrcklicher Genehmigung
Wetterdaten: Sonntag, 29.07.2018
Datum Zeit Temp. A. Feuchte A. Luftdruck Regen Wind Richtung Richtung Sonnenschein Solar Taupunkt Windchill Windben
29.07.2018 00:00 19,1 C 78 % 1011,4 hPa 0,0 l/m 3,4 km/h (1 Bft) W 267 0 min 0 W/m 15,2 C 19,1 C 9,7 km/h (2 Bft)
29.07.2018 00:03 19,1 C 78 % 1011,4 hPa 0,0 l/m 3,9 km/h (1 Bft) W 268 0 min 0 W/m 15,2 C 19,1 C 8,0 km/h (2 Bft)
29.07.2018 00:06 19,0 C 79 % 1011,5 hPa 0,0 l/m 4,1 km/h (1 Bft) W-NW 290 0 min 0 W/m 15,3 C 19,0 C 9,7 km/h (2 Bft)
29.07.2018 00:09 19,0 C 79 % 1011,5 hPa 0,0 l/m 7,2 km/h (2 Bft) W 262 0 min 0 W/m 15,3 C 18,6 C 12,9 km/h (3 Bft)
29.07.2018 00:12 19,0 C 79 % 1011,5 hPa 0,0 l/m 3,7 km/h (1 Bft) W 265 0 min 0 W/m 15,3 C 19,0 C 9,7 km/h (2 Bft)
29.07.2018 00:15 19,0 C 79 % 1011,5 hPa 0,0 l/m 3,4 km/h (1 Bft) W-NW 287 0 min 0 W/m 15,3 C 19,0 C 11,3 km/h (2 Bft)
29.07.2018 00:18 18,9 C 79 % 1011,5 hPa 0,0 l/m 5,8 km/h (2 Bft) W-NW 299 0 min 0 W/m 15,2 C 18,9 C 12,9 km/h (3 Bft)
29.07.2018 00:21 18,9 C 79 % 1011,4 hPa 0,0 l/m 5,0 km/h (1 Bft) W 259 0 min 0 W/m 15,2 C 18,9 C 11,3 km/h (2 Bft)
29.07.2018 00:24 18,9 C 79 % 1011,5 hPa 0,0 l/m 2,0 km/h (1 Bft) W 273 0 min 0 W/m 15,2 C 18,9 C 6,4 km/h (2 Bft)
29.07.2018 00:27 18,9 C 79 % 1011,5 hPa 0,0 l/m 4,8 km/h (1 Bft) W 270 0 min 0 W/m 15,2 C 18,9 C 11,3 km/h (2 Bft)
29.07.2018 00:30 18,9 C 79 % 1011,6 hPa 0,0 l/m 4,4 km/h (1 Bft) W-SW 254 0 min 0 W/m 15,2 C 18,9 C 11,3 km/h (2 Bft)
29.07.2018 00:33 18,9 C 79 % 1011,6 hPa 0,0 l/m 3,6 km/h (1 Bft) W 274 0 min 0 W/m 15,2 C 18,9 C 9,7 km/h (2 Bft)
29.07.2018 00:36 18,9 C 79 % 1011,7 hPa 0,0 l/m 4,0 km/h (1 Bft) W-SW 256 0 min 0 W/m 15,2 C 18,9 C 9,7 km/h (2 Bft)
29.07.2018 00:39 18,9 C 80 % 1011,7 hPa 0,0 l/m 4,2 km/h (1 Bft) W-SW 250 0 min 0 W/m 15,4 C 18,9 C 11,3 km/h (2 Bft)
29.07.2018 00:42 18,9 C 80 % 1011,7 hPa 0,0 l/m 4,5 km/h (1 Bft) W-SW 254 0 min 0 W/m 15,4 C 18,9 C 8,0 km/h (2 Bft)
29.07.2018 00:45 18,9 C 80 % 1011,7 hPa 0,0 l/m 5,0 km/h (1 Bft) W-SW 254 0 min 0 W/m 15,4 C 18,9 C 9,7 km/h (2 Bft)
29.07.2018 00:48 18,9 C 80 % 1011,7 hPa 0,0 l/m 4,0 km/h (1 Bft) W 273 0 min 0 W/m 15,4 C 18,9 C 6,4 km/h (2 Bft)
29.07.2018 00:51 18,9 C 80 % 1011,8 hPa 0,0 l/m 5,9 km/h (2 Bft) W-SW 257 0 min 0 W/m 15,4 C 18,9 C 11,3 km/h (2 Bft)
29.07.2018 00:54 18,9 C 80 % 1011,8 hPa 0,0 l/m 4,6 km/h (1 Bft) W 269 0 min 0 W/m 15,4 C 18,9 C 6,4 km/h (2 Bft)
29.07.2018 00:57 18,9 C 80 % 1011,8 hPa 0,0 l/m 3,9 km/h (1 Bft) SW 236 0 min 0 W/m 15,4 C 18,9 C 6,4 km/h (2 Bft)
29.07.2018 01:00 18,9 C 80 % 1011,9 hPa 0,0 l/m 3,3 km/h (1 Bft) SW 236 0 min 0 W/m 15,4 C 18,9 C 6,4 km/h (2 Bft)
29.07.2018 01:03 18,8 C 80 % 1011,8 hPa 0,0 l/m 2,3 km/h (1 Bft) SW 236 0 min 0 W/m 15,3 C 18,8 C 3,2 km/h (1 Bft)
29.07.2018 01:06 18,8 C 80 % 1011,8 hPa 0,0 l/m 1,5 km/h (1 Bft) W-SW 237 0 min 0 W/m 15,3 C 18,8 C 4,8 km/h (1 Bft)
29.07.2018 01:09 18,8 C 80 % 1011,9 hPa 0,0 l/m 3,6 km/h (1 Bft) W-SW 239 0 min 0 W/m 15,3 C 18,8 C 6,4 km/h (2 Bft)
29.07.2018 01:12 18,7 C 80 % 1011,9 hPa 0,0 l/m 2,5 km/h (1 Bft) W-SW 239 0 min 0 W/m 15,2 C 18,7 C 4,8 km/h (1 Bft)
29.07.2018 01:15 18,6 C 80 % 1011,9 hPa 0,0 l/m 3,4 km/h (1 Bft) W-SW 239 0 min 0 W/m 15,1 C 18,6 C 6,4 km/h (2 Bft)
29.07.2018 01:18 18,5 C 81 % 1011,9 hPa 0,0 l/m 2,2 km/h (1 Bft) W-SW 239 0 min 0 W/m 15,2 C 18,5 C 6,4 km/h (2 Bft)
29.07.2018 01:21 18,3 C 81 % 1012,0 hPa 0,0 l/m 4,0 km/h (1 Bft) W-SW 238 0 min 0 W/m 15,0 C 18,3 C 8,0 km/h (2 Bft)
29.07.2018 01:24 18,2 C 82 % 1012,0 hPa 0,0 l/m 3,5 km/h (1 Bft) S-SW 208 0 min 0 W/m 15,1 C 18,2 C 6,4 km/h (2 Bft)
29.07.2018 01:27 18,2 C 82 % 1012,1 hPa 0,0 l/m 2,6 km/h (1 Bft) SW 221 0 min 0 W/m 15,1 C 18,2 C 4,8 km/h (1 Bft)
29.07.2018 01:30 18,1 C 82 % 1012,1 hPa 0,0 l/m 2,6 km/h (1 Bft) SW 221 0 min 0 W/m 15,0 C 18,1 C 4,8 km/h (1 Bft)
29.07.2018 01:33 17,9 C 83 % 1012,1 hPa 0,0 l/m 3,2 km/h (1 Bft) S-SW 206 0 min 0 W/m 15,0 C 17,9 C 6,4 km/h (2 Bft)
29.07.2018 01:36 17,8 C 82 % 1012,1 hPa 0,0 l/m 4,6 km/h (1 Bft) SW 222 0 min 0 W/m 14,7 C 17,8 C 8,0 km/h (2 Bft)
29.07.2018 01:39 17,7 C 82 % 1012,1 hPa 0,0 l/m 2,1 km/h (1 Bft) SW 220 0 min 0 W/m 14,6 C 17,7 C 4,8 km/h (1 Bft)
29.07.2018 01:42 17,6 C 83 % 1012,0 hPa 0,0 l/m 2,9 km/h (1 Bft) SW 219 0 min 0 W/m 14,7 C 17,6 C 6,4 km/h (2 Bft)
29.07.2018 01:45 17,5 C 83 % 1012,0 hPa 0,0 l/m 4,6 km/h (1 Bft) S 178 0 min 0 W/m 14,6 C 17,5 C 11,3 km/h (2 Bft)
29.07.2018 01:48 17,3 C 82 % 1012,1 hPa 0,0 l/m 3,9 km/h (1 Bft) S 185 0 min 0 W/m 14,2 C 17,3 C 6,4 km/h (2 Bft)
29.07.2018 01:51 17,2 C 82 % 1012,1 hPa 0,0 l/m 2,7 km/h (1 Bft) S 186 0 min 0 W/m 14,1 C 17,2 C 4,8 km/h (1 Bft)
29.07.2018 01:54 17,1 C 83 % 1012,1 hPa 0,0 l/m 0,9 km/h (0 Bft) S 186 0 min 0 W/m 14,2 C 17,1 C 3,2 km/h (1 Bft)
29.07.2018 01:57 17,0 C 83 % 1012,1 hPa 0,0 l/m 0,4 km/h (0 Bft) S 186 0 min 0 W/m 14,1 C 17,0 C 3,2 km/h (1 Bft)
29.07.2018 02:00 16,9 C 83 % 1012,2 hPa 0,0 l/m 0,0 km/h (0 Bft) S 186 0 min 0 W/m 14,0 C 16,9 C 1,6 km/h (1 Bft)
29.07.2018 02:03 16,8 C 83 % 1012,2 hPa 0,0 l/m 1,3 km/h (1 Bft) S 186 0 min 0 W/m 13,9 C 16,8 C 3,2 km/h (1 Bft)
29.07.2018 02:06 16,7 C 84 % 1012,2 hPa 0,0 l/m 0,6 km/h (0 Bft) S 184 0 min 0 W/m 14,0 C 16,7 C 3,2 km/h (1 Bft)
29.07.2018 02:09 16,6 C 83 % 1012,2 hPa 0,0 l/m 0,3 km/h (0 Bft) S 184 0 min 0 W/m 13,7 C 16,6 C 3,2 km/h (1 Bft)
29.07.2018 02:12 16,5 C 84 % 1012,2 hPa 0,0 l/m 0,6 km/h (0 Bft) S 184 0 min 0 W/m 13,8 C 16,5 C 3,2 km/h (1 Bft)
29.07.2018 02:15 16,4 C 84 % 1012,2 hPa 0,0 l/m 0,6 km/h (0 Bft) S 184 0 min 0 W/m 13,7 C 16,4 C 3,2 km/h (1 Bft)
29.07.2018 02:18 16,3 C 84 % 1012,3 hPa 0,0 l/m 0,2 km/h (0 Bft) S 184 0 min 0 W/m 13,6 C 16,3 C 1,6 km/h (1 Bft)
29.07.2018 02:21 16,2 C 84 % 1012,2 hPa 0,0 l/m 0,4 km/h (0 Bft) S 184 0 min 0 W/m 13,5 C 16,2 C 3,2 km/h (1 Bft)
29.07.2018 02:24 16,1 C 84 % 1012,2 hPa 0,0 l/m 0,1 km/h (0 Bft) S 184 0 min 0 W/m 13,4 C 16,1 C 1,6 km/h (1 Bft)
29.07.2018 02:27 16,1 C 84 % 1012,2 hPa 0,0 l/m 0,2 km/h (0 Bft) S 184 0 min 0 W/m 13,4 C 16,1 C 3,2 km/h (1 Bft)
29.07.2018 02:30 15,9 C 84 % 1012,2 hPa 0,0 l/m 2,1 km/h (1 Bft) S 184 0 min 0 W/m 13,2 C 15,9 C 3,2 km/h (1 Bft)
29.07.2018 02:33 15,8 C 84 % 1012,2 hPa 0,0 l/m 2,3 km/h (1 Bft) S 184 0 min 0 W/m 13,1 C 15,8 C 4,8 km/h (1 Bft)
29.07.2018 02:36 15,7 C 84 % 1012,1 hPa 0,0 l/m 3,0 km/h (1 Bft) S 184 0 min 0 W/m 13,0 C 15,7 C 4,8 km/h (1 Bft)
29.07.2018 02:39 15,7 C 84 % 1012,1 hPa 0,0 l/m 2,2 km/h (1 Bft) S 173 0 min 0 W/m 13,0 C 15,7 C 8,0 km/h (2 Bft)
29.07.2018 02:42 15,6 C 85 % 1012,1 hPa 0,0 l/m 0,6 km/h (0 Bft) S 173 0 min 0 W/m 13,1 C 15,6 C 3,2 km/h (1 Bft)
29.07.2018 02:45 15,5 C 85 % 1012,1 hPa 0,0 l/m 0,4 km/h (0 Bft) S 173 0 min 0 W/m 13,0 C 15,5 C 3,2 km/h (1 Bft)
29.07.2018 02:48 15,4 C 84 % 1012,1 hPa 0,0 l/m 2,8 km/h (1 Bft) S 173 0 min 0 W/m 12,7 C 15,4 C 4,8 km/h (1 Bft)
29.07.2018 02:51 15,4 C 85 % 1012,1 hPa 0,0 l/m 0,4 km/h (0 Bft) S 173 0 min 0 W/m 12,9 C 15,4 C 3,2 km/h (1 Bft)
29.07.2018 02:54 15,3 C 85 % 1012,2 hPa 0,0 l/m 2,6 km/h (1 Bft) SW 216 0 min 0 W/m 12,8 C 15,3 C 4,8 km/h (1 Bft)
29.07.2018 02:57 15,3 C 84 % 1012,2 hPa 0,0 l/m 7,8 km/h (2 Bft) S-SW 208 0 min 0 W/m 12,6 C 14,5 C 17,7 km/h (3 Bft)
29.07.2018 03:00 15,3 C 83 % 1012,2 hPa 0,0 l/m 8,9 km/h (2 Bft) S-SW 208 0 min 0 W/m 12,4 C 14,0 C 14,5 km/h (3 Bft)
29.07.2018 03:03 15,4 C 83 % 1012,2 hPa 0,0 l/m 5,3 km/h (1 Bft) W-SW 243 0 min 0 W/m 12,5 C 15,4 C 8,0 km/h (2 Bft)
29.07.2018 03:06 15,6 C 81 % 1012,2 hPa 0,0 l/m 6,6 km/h (2 Bft) S-SW 213 0 min 0 W/m 12,3 C 15,5 C 14,5 km/h (3 Bft)
29.07.2018 03:09 15,8 C 80 % 1012,2 hPa 0,0 l/m 9,1 km/h (2 Bft) S-SW 213 0 min 0 W/m 12,4 C 14,4 C 16,1 km/h (3 Bft)
29.07.2018 03:12 16,1 C 79 % 1012,1 hPa 0,0 l/m 9,4 km/h (2 Bft) SW 222 0 min 0 W/m 12,5 C 14,6 C 17,7 km/h (3 Bft)
29.07.2018 03:15 16,3 C 78 % 1012,2 hPa 0,0 l/m 6,6 km/h (2 Bft) W 265 0 min 0 W/m 12,5 C 16,2 C 12,9 km/h (3 Bft)
29.07.2018 03:18 16,6 C 77 % 1012,2 hPa 0,0 l/m 6,6 km/h (2 Bft) SW 220 0 min 0 W/m 12,5 C 16,5 C 14,5 km/h (3 Bft)
29.07.2018 03:21 16,8 C 76 % 1012,1 hPa 0,0 l/m 6,7 km/h (2 Bft) SW 223 0 min 0 W/m 12,5 C 16,7 C 11,3 km/h (2 Bft)
29.07.2018 03:24 16,9 C 76 % 1012,1 hPa 0,0 l/m 5,7 km/h (2 Bft) W-SW 240 0 min 0 W/m 12,6 C 16,9 C 11,3 km/h (2 Bft)
29.07.2018 03:27 17,1 C 75 % 1012,0 hPa 0,0 l/m 6,3 km/h (2 Bft) SW 221 0 min 0 W/m 12,6 C 17,1 C 12,9 km/h (3 Bft)
29.07.2018 03:30 17,1 C 75 % 1012,1 hPa 0,0 l/m 5,2 km/h (1 Bft) S-SW 200 0 min 0 W/m 12,6 C 17,1 C 11,3 km/h (2 Bft)
29.07.2018 03:33 17,2 C 74 % 1012,1 hPa 0,0 l/m 5,9 km/h (2 Bft) W-SW 248 0 min 0 W/m 12,5 C 17,2 C 12,9 km/h (3 Bft)
29.07.2018 03:36 17,2 C 74 % 1012,1 hPa 0,0 l/m 8,2 km/h (2 Bft) W-SW 241 0 min 0 W/m 12,5 C 16,3 C 14,5 km/h (3 Bft)
29.07.2018 03:39 17,2 C 73 % 1012,1 hPa 0,0 l/m 9,1 km/h (2 Bft) SW 231 0 min 0 W/m 12,3 C 15,9 C 16,1 km/h (3 Bft)
29.07.2018 03:42 17,3 C 73 % 1012,2 hPa 0,0 l/m 10,1 km/h (2 Bft) SW 220 0 min 0 W/m 12,4 C 15,6 C 17,7 km/h (3 Bft)
29.07.2018 03:45 17,3 C 73 % 1012,2 hPa 0,0 l/m 9,0 km/h (2 Bft) S-SW 211 0 min 0 W/m 12,4 C 16,1 C 16,1 km/h (3 Bft)
29.07.2018 03:48 17,3 C 73 % 1012,2 hPa 0,0 l/m 9,2 km/h (2 Bft) SW 216 0 min 0 W/m 12,4 C 16,0 C 16,1 km/h (3 Bft)
29.07.2018 03:51 17,3 C 72 % 1012,2 hPa 0,0 l/m 9,6 km/h (2 Bft) SW 229 0 min 0 W/m 12,2 C 15,8 C 19,3 km/h (3 Bft)
29.07.2018 03:54 17,4 C 72 % 1012,2 hPa 0,0 l/m 7,6 km/h (2 Bft) SW 216 0 min 0 W/m 12,3 C 16,8 C 11,3 km/h (2 Bft)
29.07.2018 03:57 17,4 C 71 % 1012,2 hPa 0,0 l/m 10,0 km/h (2 Bft) SW 236 0 min 0 W/m 12,1 C 15,8 C 17,7 km/h (3 Bft)
29.07.2018 04:00 17,4 C 71 % 1012,2 hPa 0,0 l/m 8,6 km/h (2 Bft) SW 217 0 min 0 W/m 12,1 C 16,4 C 14,5 km/h (3 Bft)
29.07.2018 04:03 17,5 C 71 % 1012,2 hPa 0,0 l/m 5,3 km/h (1 Bft) SW 225 0 min 0 W/m 12,2 C 17,5 C 8,0 km/h (2 Bft)
29.07.2018 04:06 17,4 C 71 % 1012,2 hPa 0,0 l/m 7,6 km/h (2 Bft) SW 219 0 min 0 W/m 12,1 C 16,8 C 12,9 km/h (3 Bft)
29.07.2018 04:09 17,4 C 71 % 1012,1 hPa 0,0 l/m 8,0 km/h (2 Bft) W-SW 240 0 min 0 W/m 12,1 C 16,6 C 16,1 km/h (3 Bft)
29.07.2018 04:12 17,4 C 71 % 1012,1 hPa 0,0 l/m 8,0 km/h (2 Bft) W-SW 241 0 min 0 W/m 12,1 C 16,6 C 12,9 km/h (3 Bft)
29.07.2018 04:15 17,4 C 72 % 1012,1 hPa 0,0 l/m 6,5 km/h (2 Bft) SW 217 0 min 0 W/m 12,3 C 17,4 C 11,3 km/h (2 Bft)
29.07.2018 04:18 17,4 C 72 % 1012,1 hPa 0,0 l/m 6,6 km/h (2 Bft) S-SW 196 0 min 0 W/m 12,3 C 17,3 C 11,3 km/h (2 Bft)
29.07.2018 04:21 17,4 C 72 % 1012,2 hPa 0,0 l/m 8,2 km/h (2 Bft) SW 227 0 min 0 W/m 12,3 C 16,5 C 12,9 km/h (3 Bft)
29.07.2018 04:24 17,3 C 72 % 1012,2 hPa 0,0 l/m 7,1 km/h (2 Bft) SW 227 0 min 0 W/m 12,2 C 17,0 C 9,7 km/h (2 Bft)
29.07.2018 04:27 17,3 C 72 % 1012,2 hPa 0,0 l/m 6,1 km/h (2 Bft) SW 231 0 min 0 W/m 12,2 C 17,3 C 12,9 km/h (3 Bft)
29.07.2018 04:30 17,3 C 72 % 1012,2 hPa 0,0 l/m 6,5 km/h (2 Bft) SW 214 0 min 0 W/m 12,2 C 17,3 C 12,9 km/h (3 Bft)
29.07.2018 04:33 17,2 C 73 % 1012,2 hPa 0,0 l/m 5,4 km/h (2 Bft) SW 221 0 min 0 W/m 12,3 C 17,2 C 8,0 km/h (2 Bft)
29.07.2018 04:36 17,2 C 72 % 1012,3 hPa 0,0 l/m 7,3 km/h (2 Bft) S-SW 205 0 min 0 W/m 12,1 C 16,8 C 11,3 km/h (2 Bft)
29.07.2018 04:39 17,2 C 72 % 1012,2 hPa 0,0 l/m 6,6 km/h (2 Bft) S 188 0 min 0 W/m 12,1 C 17,1 C 11,3 km/h (2 Bft)
29.07.2018 04:42 17,1 C 73 % 1012,2 hPa 0,0 l/m 5,4 km/h (2 Bft) S 188 0 min 0 W/m 12,2 C 17,1 C 11,3 km/h (2 Bft)
29.07.2018 04:45 17,1 C 73 % 1012,3 hPa 0,0 l/m 5,1 km/h (1 Bft) S-SW 200 0 min 0 W/m 12,2 C 17,1 C 12,9 km/h (3 Bft)
29.07.2018 04:48 17,1 C 73 % 1012,3 hPa 0,0 l/m 4,1 km/h (1 Bft) S-SW 202 0 min 0 W/m 12,2 C 17,1 C 8,0 km/h (2 Bft)
29.07.2018 04:51 17,0 C 73 % 1012,3 hPa 0,0 l/m 4,3 km/h (1 Bft) S-SO 151 0 min 0 W/m 12,1 C 17,0 C 6,4 km/h (2 Bft)
29.07.2018 04:54 16,9 C 73 % 1012,4 hPa 0,0 l/m 3,2 km/h (1 Bft) S 175 0 min 0 W/m 12,0 C 16,9 C 6,4 km/h (2 Bft)
29.07.2018 04:57 16,8 C 73 % 1012,4 hPa 0,0 l/m 3,1 km/h (1 Bft) S-SO 158 0 min 0 W/m 11,9 C 16,8 C 8,0 km/h (2 Bft)
29.07.2018 05:00 16,6 C 74 % 1012,4 hPa 0,0 l/m 3,0 km/h (1 Bft) SO 144 0 min 0 W/m 11,9 C 16,6 C 4,8 km/h (1 Bft)
29.07.2018 05:03 16,4 C 75 % 1012,4 hPa 0,0 l/m 3,2 km/h (1 Bft) SO 144 0 min 0 W/m 12,0 C 16,4 C 4,8 km/h (1 Bft)
29.07.2018 05:06 16,3 C 75 % 1012,4 hPa 0,0 l/m 2,8 km/h (1 Bft) SO 144 0 min 0 W/m 11,9 C 16,3 C 4,8 km/h (1 Bft)
29.07.2018 05:09 16,1 C 76 % 1012,4 hPa 0,0 l/m 1,8 km/h (1 Bft) SO 144 0 min 0 W/m 11,9 C 16,1 C 3,2 km/h (1 Bft)
29.07.2018 05:12 15,9 C 77 % 1012,4 hPa 0,0 l/m 2,7 km/h (1 Bft) SO 144 0 min 0 W/m 11,9 C 15,9 C 4,8 km/h (1 Bft)
29.07.2018 05:15 15,7 C 77 % 1012,5 hPa 0,0 l/m 2,5 km/h (1 Bft) SO 146 0 min 0 W/m 11,7 C 15,7 C 4,8 km/h (1 Bft)
29.07.2018 05:18 15,6 C 78 % 1012,5 hPa 0,0 l/m 3,1 km/h (1 Bft) S-SO 150 0 min 0 W/m 11,8 C 15,6 C 4,8 km/h (1 Bft)
29.07.2018 05:21 15,4 C 79 % 1012,5 hPa 0,0 l/m 3,4 km/h (1 Bft) S-SO 157 0 min 0 W/m 11,8 C 15,4 C 4,8 km/h (1 Bft)
29.07.2018 05:24 15,3 C 79 % 1012,5 hPa 0,0 l/m 4,5 km/h (1 Bft) S-SO 155 0 min 0 W/m 11,7 C 15,3 C 6,4 km/h (2 Bft)
29.07.2018 05:27 15,2 C 80 % 1012,5 hPa 0,0 l/m 3,7 km/h (1 Bft) S 174 0 min 0 W/m 11,8 C 15,2 C 4,8 km/h (1 Bft)
29.07.2018 05:30 15,1 C 80 % 1012,5 hPa 0,0 l/m 3,6 km/h (1 Bft) S 174 0 min 0 W/m 11,7 C 15,1 C 8,0 km/h (2 Bft)
29.07.2018 05:33 15,0 C 81 % 1012,5 hPa 0,0 l/m 4,3 km/h (1 Bft) S 178 0 min 0 W/m 11,8 C 15,0 C 6,4 km/h (2 Bft)
29.07.2018 05:36 14,9 C 81 % 1012,5 hPa 0,0 l/m 3,8 km/h (1 Bft) S 170 0 min 5 W/m 11,7 C 14,9 C 8,0 km/h (2 Bft)
29.07.2018 05:39 14,8 C 82 % 1012,5 hPa 0,0 l/m 3,8 km/h (1 Bft) S 171 0 min 5 W/m 11,8 C 14,8 C 8,0 km/h (2 Bft)
29.07.2018 05:42 14,7 C 83 % 1012,5 hPa 0,0 l/m 6,0 km/h (2 Bft) S 173 0 min 7 W/m 11,8 C 14,7 C 9,7 km/h (2 Bft)
29.07.2018 05:45 14,7 C 83 % 1012,5 hPa 0,0 l/m 5,7 km/h (2 Bft) S-SO 161 0 min 7 W/m 11,8 C 14,7 C 9,7 km/h (2 Bft)
29.07.2018 05:48 14,6 C 84 % 1012,6 hPa 0,0 l/m 6,1 km/h (2 Bft) S-SO 167 3 min 11 W/m 11,9 C 14,6 C 11,3 km/h (2 Bft)
29.07.2018 05:51 14,6 C 85 % 1012,6 hPa 0,0 l/m 6,5 km/h (2 Bft) S-SO 167 0 min 12 W/m 12,1 C 14,6 C 11,3 km/h (2 Bft)
29.07.2018 05:54 14,6 C 85 % 1012,6 hPa 0,0 l/m 6,5 km/h (2 Bft) S-SW 211 0 min 16 W/m 12,1 C 14,6 C 11,3 km/h (2 Bft)
29.07.2018 05:57 14,6 C 86 % 1012,6 hPa 0,0 l/m 6,6 km/h (2 Bft) S 173 0 min 18 W/m 12,3 C 14,5 C 9,7 km/h (2 Bft)
29.07.2018 06:00 14,6 C 86 % 1012,6 hPa 0,0 l/m 6,0 km/h (2 Bft) S 185 0 min 18 W/m 12,3 C 14,6 C 11,3 km/h (2 Bft)
29.07.2018 06:03 14,7 C 86 % 1012,6 hPa 0,0 l/m 5,4 km/h (2 Bft) S 187 0 min 19 W/m 12,4 C 14,7 C 9,7 km/h (2 Bft)
29.07.2018 06:06 14,7 C 86 % 1012,7 hPa 0,0 l/m 5,6 km/h (2 Bft) SO 146 0 min 19 W/m 12,4 C 14,7 C 8,0 km/h (2 Bft)
29.07.2018 06:09 14,7 C 86 % 1012,8 hPa 0,0 l/m 7,0 km/h (2 Bft) S-SW 199 0 min 19 W/m 12,4 C 14,4 C 12,9 km/h (3 Bft)
29.07.2018 06:12 14,8 C 86 % 1012,7 hPa 0,0 l/m 7,0 km/h (2 Bft) S 173 0 min 19 W/m 12,5 C 14,5 C 11,3 km/h (2 Bft)
29.07.2018 06:15 14,8 C 86 % 1012,7 hPa 0,0 l/m 5,8 km/h (2 Bft) S 182 0 min 21 W/m 12,5 C 14,8 C 9,7 km/h (2 Bft)
29.07.2018 06:18 14,8 C 86 % 1012,8 hPa 0,0 l/m 5,8 km/h (2 Bft) S 179 0 min 21 W/m 12,5 C 14,8 C 8,0 km/h (2 Bft)
29.07.2018 06:21 14,8 C 86 % 1012,8 hPa 0,0 l/m 5,9 km/h (2 Bft) S 171 0 min 23 W/m 12,5 C 14,8 C 9,7 km/h (2 Bft)
29.07.2018 06:24 14,8 C 86 % 1012,8 hPa 0,0 l/m 3,8 km/h (1 Bft) S-SO 151 0 min 23 W/m 12,5 C 14,8 C 8,0 km/h (2 Bft)
29.07.2018 06:27 14,8 C 85 % 1012,8 hPa 0,0 l/m 3,6 km/h (1 Bft) S-SO 155 0 min 25 W/m 12,3 C 14,8 C 8,0 km/h (2 Bft)
29.07.2018 06:30 14,9 C 85 % 1012,8 hPa 0,0 l/m 4,3 km/h (1 Bft) S-SO 163 0 min 25 W/m 12,4 C 14,9 C 8,0 km/h (2 Bft)
29.07.2018 06:33 14,9 C 85 % 1012,8 hPa 0,0 l/m 4,2 km/h (1 Bft) S-SO 167 0 min 25 W/m 12,4 C 14,9 C 9,7 km/h (2 Bft)
29.07.2018 06:36 14,9 C 85 % 1012,9 hPa 0,0 l/m 4,9 km/h (1 Bft) S-SO 164 0 min 25 W/m 12,4 C 14,9 C 9,7 km/h (2 Bft)
29.07.2018 06:39 15,0 C 85 % 1012,8 hPa 0,0 l/m 3,8 km/h (1 Bft) S-SO 150 0 min 25 W/m 12,5 C 15,0 C 8,0 km/h (2 Bft)
29.07.2018 06:42 15,1 C 85 % 1012,9 hPa 0,0 l/m 4,0 km/h (1 Bft) SO 134 0 min 23 W/m 12,6 C 15,1 C 8,0 km/h (2 Bft)
29.07.2018 06:45 15,1 C 84 % 1012,9 hPa 0,0 l/m 3,2 km/h (1 Bft) S-SO 159 0 min 23 W/m 12,4 C 15,1 C 8,0 km/h (2 Bft)
29.07.2018 06:48 15,1 C 84 % 1012,9 hPa 0,0 l/m 5,2 km/h (1 Bft) S-SO 160 0 min 23 W/m 12,4 C 15,1 C 8,0 km/h (2 Bft)
29.07.2018 06:51 15,2 C 84 % 1013,0 hPa 0,0 l/m 4,4 km/h (1 Bft) S 169 0 min 23 W/m 12,5 C 15,2 C 8,0 km/h (2 Bft)
29.07.2018 06:54 15,2 C 84 % 1013,0 hPa 0,0 l/m 5,0 km/h (1 Bft) S 174 0 min 23 W/m 12,5 C 15,2 C 9,7 km/h (2 Bft)
29.07.2018 06:57 15,2 C 84 % 1013,0 hPa 0,0 l/m 5,8 km/h (2 Bft) S 183 0 min 23 W/m 12,5 C 15,2 C 9,7 km/h (2 Bft)
29.07.2018 07:00 15,3 C 84 % 1013,0 hPa 0,0 l/m 4,0 km/h (1 Bft) S-SO 164 0 min 23 W/m 12,6 C 15,3 C 9,7 km/h (2 Bft)
29.07.2018 07:03 15,3 C 83 % 1012,9 hPa 0,0 l/m 2,1 km/h (1 Bft) S-SO 163 0 min 23 W/m 12,4 C 15,3 C 6,4 km/h (2 Bft)
29.07.2018 07:06 15,2 C 83 % 1013,0 hPa 0,0 l/m 1,9 km/h (1 Bft) S-SO 163 0 min 25 W/m 12,3 C 15,2 C 6,4 km/h (2 Bft)
29.07.2018 07:09 15,2 C 83 % 1013,0 hPa 0,0 l/m 2,4 km/h (1 Bft) S-SO 163 0 min 23 W/m 12,3 C 15,2 C 6,4 km/h (2 Bft)
29.07.2018 07:12 15,2 C 84 % 1013,0 hPa 0,0 l/m 2,0 km/h (1 Bft) S-SO 157 0 min 28 W/m 12,5 C 15,2 C 4,8 km/h (1 Bft)
29.07.2018 07:15 15,2 C 84 % 1013,0 hPa 0,0 l/m 2,8 km/h (1 Bft) S-SO 147 0 min 30 W/m 12,5 C 15,2 C 4,8 km/h (1 Bft)
29.07.2018 07:18 15,2 C 84 % 1013,0 hPa 0,0 l/m 2,1 km/h (1 Bft) SO 142 0 min 33 W/m 12,5 C 15,2 C 4,8 km/h (1 Bft)
29.07.2018 07:21 15,2 C 84 % 1013,0 hPa 0,0 l/m 2,6 km/h (1 Bft) SO 144 0 min 37 W/m 12,5 C 15,2 C 8,0 km/h (2 Bft)
29.07.2018 07:24 15,2 C 84 % 1013,0 hPa 0,0 l/m 4,7 km/h (1 Bft) O-SO 114 0 min 42 W/m 12,5 C 15,2 C 8,0 km/h (2 Bft)
29.07.2018 07:27 15,3 C 84 % 1013,1 hPa 0,0 l/m 4,3 km/h (1 Bft) SO 136 0 min 47 W/m 12,6 C 15,3 C 8,0 km/h (2 Bft)
29.07.2018 07:30 15,4 C 83 % 1013,1 hPa 0,0 l/m 3,8 km/h (1 Bft) SO 128 0 min 53 W/m 12,5 C 15,4 C 8,0 km/h (2 Bft)
29.07.2018 07:33 15,5 C 83 % 1013,1 hPa 0,0 l/m 3,7 km/h (1 Bft) S-SO 157 0 min 56 W/m 12,6 C 15,5 C 8,0 km/h (2 Bft)
29.07.2018 07:36 15,6 C 83 % 1013,1 hPa 0,0 l/m 4,0 km/h (1 Bft) S-SO 149 0 min 58 W/m 12,7 C 15,6 C 8,0 km/h (2 Bft)
29.07.2018 07:39 15,7 C 83 % 1013,1 hPa 0,0 l/m 4,7 km/h (1 Bft) SO 128 0 min 58 W/m 12,8 C 15,7 C 8,0 km/h (2 Bft)
29.07.2018 07:42 15,9 C 82 % 1013,1 hPa 0,0 l/m 4,5 km/h (1 Bft) S-SO 161 0 min 56 W/m 12,8 C 15,9 C 8,0 km/h (2 Bft)
29.07.2018 07:45 16,0 C 82 % 1013,1 hPa 0,0 l/m 3,1 km/h (1 Bft) S 173 0 min 54 W/m 12,9 C 16,0 C 8,0 km/h (2 Bft)
29.07.2018 07:48 16,1 C 81 % 1013,1 hPa 0,0 l/m 3,7 km/h (1 Bft) S-SO 163 0 min 53 W/m 12,8 C 16,1 C 8,0 km/h (2 Bft)
29.07.2018 07:51 16,2 C 81 % 1013,2 hPa 0,0 l/m 3,7 km/h (1 Bft) SO 135 0 min 53 W/m 12,9 C 16,2 C 6,4 km/h (2 Bft)
29.07.2018 07:54 16,2 C 81 % 1013,2 hPa 0,0 l/m 4,9 km/h (1 Bft) S-SO 153 0 min 54 W/m 12,9 C 16,2 C 9,7 km/h (2 Bft)
29.07.2018 07:57 16,3 C 81 % 1013,2 hPa 0,0 l/m 4,0 km/h (1 Bft) S-SO 159 0 min 53 W/m 13,0 C 16,3 C 6,4 km/h (2 Bft)
29.07.2018 08:00 16,4 C 81 % 1013,2 hPa 0,0 l/m 4,7 km/h (1 Bft) S-SO 149 0 min 54 W/m 13,1 C 16,4 C 8,0 km/h (2 Bft)
29.07.2018 08:03 16,5 C 81 % 1013,2 hPa 0,0 l/m 4,1 km/h (1 Bft) S-SO 160 0 min 53 W/m 13,2 C 16,5 C 8,0 km/h (2 Bft)
29.07.2018 08:06 16,6 C 80 % 1013,3 hPa 0,0 l/m 4,6 km/h (1 Bft) S-SO 154 0 min 54 W/m 13,1 C 16,6 C 8,0 km/h (2 Bft)
29.07.2018 08:09 16,6 C 80 % 1013,2 hPa 0,0 l/m 5,5 km/h (2 Bft) S-SO 161 0 min 54 W/m 13,1 C 16,6 C 9,7 km/h (2 Bft)
29.07.2018 08:12 16,7 C 80 % 1013,3 hPa 0,0 l/m 5,1 km/h (1 Bft) SO 142 0 min 62 W/m 13,2 C 16,7 C 9,7 km/h (2 Bft)
29.07.2018 08:15 16,8 C 80 % 1013,3 hPa 0,0 l/m 5,0 km/h (1 Bft) S 188 0 min 79 W/m 13,3 C 16,8 C 11,3 km/h (2 Bft)
29.07.2018 08:18 16,9 C 80 % 1013,3 hPa 0,0 l/m 6,0 km/h (2 Bft) O-SO 114 0 min 98 W/m 13,4 C 16,9 C 16,1 km/h (3 Bft)
29.07.2018 08:21 17,2 C 79 % 1013,4 hPa 0,0 l/m 5,8 km/h (2 Bft) SO 134 0 min 130 W/m 13,5 C 17,2 C 11,3 km/h (2 Bft)
29.07.2018 08:24 17,3 C 78 % 1013,4 hPa 0,0 l/m 5,8 km/h (2 Bft) S 172 0 min 142 W/m 13,4 C 17,3 C 9,7 km/h (2 Bft)
29.07.2018 08:27 17,5 C 77 % 1013,5 hPa 0,0 l/m 6,7 km/h (2 Bft) SO 134 0 min 153 W/m 13,4 C 17,4 C 11,3 km/h (2 Bft)
29.07.2018 08:30 17,6 C 76 % 1013,5 hPa 0,0 l/m 6,7 km/h (2 Bft) SO 133 0 min 176 W/m 13,3 C 17,5 C 11,3 km/h (2 Bft)
29.07.2018 08:33 17,7 C 76 % 1013,5 hPa 0,0 l/m 5,4 km/h (2 Bft) S 171 3 min 265 W/m 13,4 C 17,7 C 11,3 km/h (2 Bft)
29.07.2018 08:36 17,8 C 76 % 1013,4 hPa 0,0 l/m 6,3 km/h (2 Bft) S 172 3 min 424 W/m 13,5 C 17,8 C 12,9 km/h (3 Bft)
29.07.2018 08:39 18,0 C 76 % 1013,4 hPa 0,0 l/m 6,5 km/h (2 Bft) O-SO 112 3 min 448 W/m 13,7 C 18,0 C 11,3 km/h (2 Bft)
29.07.2018 08:42 18,2 C 75 % 1013,5 hPa 0,0 l/m 6,2 km/h (2 Bft) S-SW 192 3 min 448 W/m 13,7 C 18,2 C 14,5 km/h (3 Bft)
29.07.2018 08:45 18,4 C 74 % 1013,5 hPa 0,0 l/m 5,5 km/h (2 Bft) SO 130 0 min 151 W/m 13,7 C 18,4 C 12,9 km/h (3 Bft)
29.07.2018 08:48 18,6 C 73 % 1013,5 hPa 0,0 l/m 8,0 km/h (2 Bft) S-SO 163 0 min 183 W/m 13,7 C 17,9 C 14,5 km/h (3 Bft)
29.07.2018 08:51 18,7 C 72 % 1013,6 hPa 0,0 l/m 7,7 km/h (2 Bft) SO 134 0 min 105 W/m 13,5 C 18,1 C 12,9 km/h (3 Bft)
29.07.2018 08:54 18,7 C 72 % 1013,6 hPa 0,0 l/m 6,2 km/h (2 Bft) S-SO 150 0 min 93 W/m 13,5 C 18,7 C 11,3 km/h (2 Bft)
29.07.2018 08:57 18,6 C 72 % 1013,6 hPa 0,0 l/m 4,6 km/h (1 Bft) SO 138 0 min 107 W/m 13,4 C 18,6 C 11,3 km/h (2 Bft)
29.07.2018 09:00 18,5 C 73 % 1013,7 hPa 0,0 l/m 4,7 km/h (1 Bft) S-SO 163 0 min 120 W/m 13,6 C 18,5 C 11,3 km/h (2 Bft)
29.07.2018 09:03 18,4 C 74 % 1013,7 hPa 0,0 l/m 2,8 km/h (1 Bft) S-SO 150 0 min 158 W/m 13,7 C 18,4 C 9,7 km/h (2 Bft)
29.07.2018 09:06 18,4 C 74 % 1013,7 hPa 0,0 l/m 3,4 km/h (1 Bft) S 188 0 min 221 W/m 13,7 C 18,4 C 8,0 km/h (2 Bft)
29.07.2018 09:09 18,6 C 75 % 1013,7 hPa 0,0 l/m 3,3 km/h (1 Bft) S 186 3 min 425 W/m 14,1 C 18,6 C 6,4 km/h (2 Bft)
29.07.2018 09:12 19,1 C 71 % 1013,6 hPa 0,0 l/m 4,8 km/h (1 Bft) S-SW 209 3 min 485 W/m 13,7 C 19,1 C 9,7 km/h (2 Bft)
29.07.2018 09:15 19,6 C 68 % 1013,6 hPa 0,0 l/m 6,6 km/h (2 Bft) S-SO 162 3 min 494 W/m 13,5 C 19,5 C 11,3 km/h (2 Bft)
29.07.2018 09:18 20,0 C 66 % 1013,5 hPa 0,0 l/m 5,1 km/h (1 Bft) S 181 3 min 466 W/m 13,4 C 20,0 C 9,7 km/h (2 Bft)
29.07.2018 09:21 20,2 C 66 % 1013,5 hPa 0,0 l/m 6,2 km/h (2 Bft) SO 126 3 min 327 W/m 13,6 C 20,2 C 9,7 km/h (2 Bft)
29.07.2018 09:24 20,2 C 64 % 1013,5 hPa 0,0 l/m 6,0 km/h (2 Bft) S-SW 192 3 min 352 W/m 13,2 C 20,2 C 12,9 km/h (3 Bft)
29.07.2018 09:27 20,1 C 63 % 1013,6 hPa 0,0 l/m 4,8 km/h (1 Bft) S 184 0 min 211 W/m 12,8 C 20,1 C 11,3 km/h (2 Bft)
29.07.2018 09:30 20,0 C 64 % 1013,6 hPa 0,0 l/m 5,2 km/h (1 Bft) SW 221 0 min 216 W/m 13,0 C 20,0 C 12,9 km/h (3 Bft)
29.07.2018 09:33 20,0 C 64 % 1013,5 hPa 0,0 l/m 5,5 km/h (2 Bft) S 182 0 min 271 W/m 13,0 C 20,0 C 12,9 km/h (3 Bft)
29.07.2018 09:36 20,0 C 65 % 1013,5 hPa 0,0 l/m 4,3 km/h (1 Bft) S 184 3 min 420 W/m 13,2 C 20,0 C 11,3 km/h (2 Bft)
29.07.2018 09:39 20,2 C 65 % 1013,6 hPa 0,0 l/m 6,0 km/h (2 Bft) S-SW 203 3 min 466 W/m 13,4 C 20,2 C 9,7 km/h (2 Bft)
29.07.2018 09:42 20,5 C 63 % 1013,5 hPa 0,0 l/m 5,9 km/h (2 Bft) SW 223 3 min 482 W/m 13,2 C 20,5 C 11,3 km/h (2 Bft)
29.07.2018 09:45 20,7 C 63 % 1013,6 hPa 0,0 l/m 6,1 km/h (2 Bft) S-SW 213 0 min 279 W/m 13,4 C 20,7 C 9,7 km/h (2 Bft)
29.07.2018 09:48 20,9 C 63 % 1013,6 hPa 0,0 l/m 5,7 km/h (2 Bft) S 172 3 min 504 W/m 13,6 C 20,9 C 12,9 km/h (3 Bft)
29.07.2018 09:51 21,3 C 62 % 1013,6 hPa 0,0 l/m 6,2 km/h (2 Bft) SO 145 3 min 387 W/m 13,7 C 21,3 C 12,9 km/h (3 Bft)
29.07.2018 09:54 21,3 C 60 % 1013,6 hPa 0,0 l/m 4,4 km/h (1 Bft) S-SW 203 3 min 557 W/m 13,2 C 21,3 C 8,0 km/h (2 Bft)
29.07.2018 09:57 21,6 C 62 % 1013,5 hPa 0,0 l/m 4,2 km/h (1 Bft) S 178 3 min 561 W/m 14,0 C 21,6 C 8,0 km/h (2 Bft)
29.07.2018 10:00 22,0 C 60 % 1013,6 hPa 0,0 l/m 4,9 km/h (1 Bft) W-SW 240 3 min 594 W/m 13,9 C 22,0 C 9,7 km/h (2 Bft)
29.07.2018 10:03 22,1 C 54 % 1013,6 hPa 0,0 l/m 8,5 km/h (2 Bft) S-SW 207 3 min 519 W/m 12,3 C 21,4 C 14,5 km/h (3 Bft)
29.07.2018 10:06 22,1 C 54 % 1013,5 hPa 0,0 l/m 3,9 km/h (1 Bft) S-SW 210 3 min 438 W/m 12,3 C 22,1 C 8,0 km/h (2 Bft)
29.07.2018 10:09 22,1 C 54 % 1013,5 hPa 0,0 l/m 5,9 km/h (2 Bft) S-SW 199 3 min 390 W/m 12,3 C 22,1 C 9,7 km/h (2 Bft)
29.07.2018 10:12 22,0 C 56 % 1013,6 hPa 0,0 l/m 6,9 km/h (2 Bft) SO 131 3 min 473 W/m 12,8 C 21,8 C 12,9 km/h (3 Bft)
29.07.2018 10:15 22,0 C 58 % 1013,7 hPa 0,0 l/m 6,4 km/h (2 Bft) SO 144 3 min 369 W/m 13,3 C 22,0 C 16,1 km/h (3 Bft)
29.07.2018 10:18 21,9 C 53 % 1013,7 hPa 0,0 l/m 5,3 km/h (1 Bft) S-SO 168 0 min 301 W/m 11,9 C 21,9 C 12,9 km/h (3 Bft)
29.07.2018 10:21 21,7 C 52 % 1013,6 hPa 0,0 l/m 5,6 km/h (2 Bft) SW 233 0 min 151 W/m 11,4 C 21,7 C 9,7 km/h (2 Bft)
29.07.2018 10:24 21,4 C 53 % 1013,6 hPa 0,0 l/m 4,9 km/h (1 Bft) SW 231 0 min 195 W/m 11,4 C 21,4 C 11,3 km/h (2 Bft)
29.07.2018 10:27 21,3 C 55 % 1013,7 hPa 0,0 l/m 5,3 km/h (1 Bft) S 175 0 min 292 W/m 11,9 C 21,3 C 8,0 km/h (2 Bft)
29.07.2018 10:30 21,3 C 55 % 1013,7 hPa 0,0 l/m 5,3 km/h (1 Bft) S 173 3 min 476 W/m 11,9 C 21,3 C 11,3 km/h (2 Bft)
29.07.2018 10:33 21,8 C 52 % 1013,6 hPa 0,0 l/m 6,5 km/h (2 Bft) SO 143 3 min 601 W/m 11,5 C 21,8 C 11,3 km/h (2 Bft)
29.07.2018 10:36 22,2 C 51 % 1013,6 hPa 0,0 l/m 3,6 km/h (1 Bft) S-SO 151 3 min 508 W/m 11,6 C 22,2 C 8,0 km/h (2 Bft)
29.07.2018 10:39 22,4 C 54 % 1013,5 hPa 0,0 l/m 4,5 km/h (1 Bft) S 178 3 min 508 W/m 12,6 C 22,4 C 9,7 km/h (2 Bft)
29.07.2018 10:42 22,7 C 55 % 1013,6 hPa 0,0 l/m 7,0 km/h (2 Bft) S 188 3 min 649 W/m 13,2 C 22,5 C 14,5 km/h (3 Bft)
29.07.2018 10:45 22,7 C 56 % 1013,6 hPa 0,0 l/m 6,0 km/h (2 Bft) S 177 3 min 647 W/m 13,5 C 22,7 C 12,9 km/h (3 Bft)
29.07.2018 10:48 22,9 C 57 % 1013,6 hPa 0,0 l/m 4,5 km/h (1 Bft) S 171 3 min 577 W/m 13,9 C 22,9 C 9,7 km/h (2 Bft)
29.07.2018 10:51 22,9 C 54 % 1013,6 hPa 0,0 l/m 4,3 km/h (1 Bft) W-SW 245 3 min 628 W/m 13,1 C 22,9 C 9,7 km/h (2 Bft)
29.07.2018 10:54 23,1 C 58 % 1013,7 hPa 0,0 l/m 4,9 km/h (1 Bft) SO 129 3 min 682 W/m 14,4 C 23,1 C 14,5 km/h (3 Bft)
29.07.2018 10:57 23,0 C 55 % 1013,7 hPa 0,0 l/m 6,1 km/h (2 Bft) S 170 3 min 722 W/m 13,5 C 23,0 C 11,3 km/h (2 Bft)
29.07.2018 11:00 23,4 C 54 % 1013,7 hPa 0,0 l/m 4,9 km/h (1 Bft) S-SO 157 3 min 719 W/m 13,6 C 23,4 C 11,3 km/h (2 Bft)
29.07.2018 11:03 23,5 C 53 % 1013,6 hPa 0,0 l/m 6,3 km/h (2 Bft) W-SW 257 3 min 538 W/m 13,4 C 23,5 C 14,5 km/h (3 Bft)
29.07.2018 11:06 23,3 C 52 % 1013,6 hPa 0,0 l/m 6,9 km/h (2 Bft) SO 132 3 min 417 W/m 12,9 C 23,1 C 12,9 km/h (3 Bft)
29.07.2018 11:09 22,9 C 53 % 1013,5 hPa 0,0 l/m 1,7 km/h (1 Bft) SO 133 3 min 563 W/m 12,8 C 22,9 C 6,4 km/h (2 Bft)
29.07.2018 11:12 22,9 C 55 % 1013,5 hPa 0,0 l/m 4,0 km/h (1 Bft) O-SO 107 3 min 714 W/m 13,4 C 22,9 C 9,7 km/h (2 Bft)
29.07.2018 11:15 23,2 C 56 % 1013,5 hPa 0,0 l/m 2,9 km/h (1 Bft) SO 134 3 min 645 W/m 13,9 C 23,2 C 8,0 km/h (2 Bft)
29.07.2018 11:18 23,3 C 55 % 1013,5 hPa 0,0 l/m 5,7 km/h (2 Bft) S 171 3 min 621 W/m 13,7 C 23,3 C 16,1 km/h (3 Bft)
29.07.2018 11:21 23,4 C 56 % 1013,5 hPa 0,0 l/m 7,9 km/h (2 Bft) SO 140 3 min 633 W/m 14,1 C 22,9 C 16,1 km/h (3 Bft)
29.07.2018 11:24 23,3 C 56 % 1013,5 hPa 0,0 l/m 4,1 km/h (1 Bft) O-SO 110 3 min 707 W/m 14,0 C 23,3 C 11,3 km/h (2 Bft)
29.07.2018 11:27 23,3 C 57 % 1013,5 hPa 0,0 l/m 5,3 km/h (1 Bft) O-SO 114 3 min 715 W/m 14,3 C 23,3 C 11,3 km/h (2 Bft)
29.07.2018 11:30 23,5 C 56 % 1013,5 hPa 0,0 l/m 4,4 km/h (1 Bft) O-SO 105 3 min 712 W/m 14,2 C 23,5 C 12,9 km/h (3 Bft)
29.07.2018 11:33 23,9 C 58 % 1013,5 hPa 0,0 l/m 2,5 km/h (1 Bft) SO 132 3 min 737 W/m 15,1 C 23,9 C 4,8 km/h (1 Bft)
29.07.2018 11:36 24,4 C 54 % 1013,5 hPa 0,0 l/m 6,4 km/h (2 Bft) S 175 3 min 749 W/m 14,5 C 24,4 C 12,9 km/h (3 Bft)
29.07.2018 11:39 24,6 C 53 % 1013,5 hPa 0,0 l/m 6,1 km/h (2 Bft) S-SO 155 3 min 745 W/m 14,4 C 24,6 C 11,3 km/h (2 Bft)
29.07.2018 11:42 24,5 C 53 % 1013,5 hPa 0,0 l/m 7,4 km/h (2 Bft) O-SO 104 3 min 661 W/m 14,3 C 24,2 C 14,5 km/h (3 Bft)
29.07.2018 11:45 24,2 C 54 % 1013,4 hPa 0,0 l/m 2,2 km/h (1 Bft) O 86 3 min 703 W/m 14,3 C 24,2 C 4,8 km/h (1 Bft)
29.07.2018 11:48 24,4 C 55 % 1013,4 hPa 0,0 l/m 4,2 km/h (1 Bft) S-SO 153 3 min 684 W/m 14,8 C 24,4 C 8,0 km/h (2 Bft)
29.07.2018 11:51 24,8 C 53 % 1013,4 hPa 0,0 l/m 3,9 km/h (1 Bft) S 176 3 min 747 W/m 14,6 C 24,8 C 9,7 km/h (2 Bft)
29.07.2018 11:54 25,0 C 50 % 1013,4 hPa 0,0 l/m 6,9 km/h (2 Bft) S-SO 153 3 min 689 W/m 13,8 C 24,9 C 12,9 km/h (3 Bft)
29.07.2018 11:57 24,8 C 48 % 1013,3 hPa 0,0 l/m 6,8 km/h (2 Bft) SO 144 3 min 710 W/m 13,0 C 24,7 C 12,9 km/h (3 Bft)
29.07.2018 12:00 24,7 C 51 % 1013,3 hPa 0,0 l/m 4,9 km/h (1 Bft) S-SO 162 3 min 640 W/m 13,9 C 24,7 C 9,7 km/h (2 Bft)
29.07.2018 12:03 24,7 C 52 % 1013,3 hPa 0,0 l/m 4,4 km/h (1 Bft) O 93 3 min 631 W/m 14,2 C 24,7 C 11,3 km/h (2 Bft)
29.07.2018 12:06 24,6 C 52 % 1013,2 hPa 0,0 l/m 4,3 km/h (1 Bft) N 5 3 min 629 W/m 14,1 C 24,6 C 8,0 km/h (2 Bft)
29.07.2018 12:09 24,5 C 50 % 1013,1 hPa 0,0 l/m 4,9 km/h (1 Bft) O 90 3 min 652 W/m 13,4 C 24,5 C 11,3 km/h (2 Bft)
29.07.2018 12:12 24,5 C 49 % 1013,2 hPa 0,0 l/m 4,2 km/h (1 Bft) SO 136 3 min 675 W/m 13,1 C 24,5 C 11,3 km/h (2 Bft)
29.07.2018 12:15 24,9 C 48 % 1013,2 hPa 0,0 l/m 7,7 km/h (2 Bft) S 188 3 min 640 W/m 13,1 C 24,6 C 14,5 km/h (3 Bft)
29.07.2018 12:18 25,1 C 47 % 1013,1 hPa 0,0 l/m 4,7 km/h (1 Bft) S-SO 167 3 min 668 W/m 13,0 C 25,1 C 9,7 km/h (2 Bft)
29.07.2018 12:21 25,1 C 47 % 1013,1 hPa 0,0 l/m 7,2 km/h (2 Bft) SO 134 3 min 668 W/m 13,0 C 24,9 C 14,5 km/h (3 Bft)
29.07.2018 12:24 25,1 C 47 % 1013,1 hPa 0,0 l/m 6,9 km/h (2 Bft) S 191 3 min 689 W/m 13,0 C 25,0 C 16,1 km/h (3 Bft)
29.07.2018 12:27 25,3 C 46 % 1013,0 hPa 0,0 l/m 5,7 km/h (2 Bft) S-SW 213 3 min 622 W/m 12,8 C 25,3 C 9,7 km/h (2 Bft)
29.07.2018 12:30 25,2 C 47 % 1013,0 hPa 0,0 l/m 8,1 km/h (2 Bft) S 172 3 min 622 W/m 13,1 C 24,8 C 16,1 km/h (3 Bft)
29.07.2018 12:33 25,2 C 47 % 1012,9 hPa 0,0 l/m 4,0 km/h (1 Bft) O-NO 69 3 min 703 W/m 13,1 C 25,2 C 8,0 km/h (2 Bft)
29.07.2018 12:36 25,3 C 48 % 1012,9 hPa 0,0 l/m 4,9 km/h (1 Bft) O-NO 78 3 min 652 W/m 13,5 C 25,3 C 14,5 km/h (3 Bft)
29.07.2018 12:39 25,6 C 48 % 1012,8 hPa 0,0 l/m 6,4 km/h (2 Bft) SO 136 3 min 684 W/m 13,8 C 25,6 C 11,3 km/h (2 Bft)
29.07.2018 12:42 25,7 C 46 % 1012,9 hPa 0,0 l/m 8,1 km/h (2 Bft) S 184 3 min 605 W/m 13,2 C 25,3 C 12,9 km/h (3 Bft)
29.07.2018 12:45 25,7 C 45 % 1012,8 hPa 0,0 l/m 7,7 km/h (2 Bft) SO 143 3 min 457 W/m 12,9 C 25,4 C 14,5 km/h (3 Bft)
29.07.2018 12:48 25,4 C 44 % 1012,7 hPa 0,0 l/m 3,8 km/h (1 Bft) O-SO 109 3 min 545 W/m 12,2 C 25,4 C 6,4 km/h (2 Bft)
29.07.2018 12:51 25,4 C 45 % 1012,7 hPa 0,0 l/m 3,6 km/h (1 Bft) O-NO 63 3 min 872 W/m 12,6 C 25,4 C 8,0 km/h (2 Bft)
29.07.2018 12:54 25,9 C 44 % 1012,7 hPa 0,0 l/m 3,8 km/h (1 Bft) O-SO 109 3 min 782 W/m 12,7 C 25,9 C 11,3 km/h (2 Bft)
29.07.2018 12:57 25,8 C 44 % 1012,6 hPa 0,0 l/m 3,9 km/h (1 Bft) O-SO 115 3 min 462 W/m 12,6 C 25,8 C 9,7 km/h (2 Bft)
29.07.2018 13:00 25,4 C 48 % 1012,7 hPa 0,0 l/m 5,8 km/h (2 Bft) S 182 3 min 446 W/m 13,6 C 25,4 C 12,9 km/h (3 Bft)
29.07.2018 13:03 25,4 C 48 % 1012,7 hPa 0,0 l/m 4,4 km/h (1 Bft) S-SO 150 0 min 381 W/m 13,6 C 25,4 C 9,7 km/h (2 Bft)
29.07.2018 13:06 24,9 C 48 % 1012,6 hPa 0,0 l/m 5,3 km/h (1 Bft) O-SO 117 0 min 316 W/m 13,1 C 24,9 C 12,9 km/h (3 Bft)
29.07.2018 13:09 24,8 C 49 % 1012,5 hPa 0,0 l/m 4,4 km/h (1 Bft) O 99 0 min 355 W/m 13,3 C 24,8 C 12,9 km/h (3 Bft)
29.07.2018 13:12 24,6 C 49 % 1012,5 hPa 0,0 l/m 6,7 km/h (2 Bft) O-NO 78 0 min 355 W/m 13,2 C 24,5 C 17,7 km/h (3 Bft)
29.07.2018 13:15 24,6 C 51 % 1012,5 hPa 0,0 l/m 4,5 km/h (1 Bft) S-SO 161 3 min 466 W/m 13,8 C 24,6 C 12,9 km/h (3 Bft)
29.07.2018 13:18 24,8 C 50 % 1012,4 hPa 0,0 l/m 4,1 km/h (1 Bft) SO 127 3 min 510 W/m 13,7 C 24,8 C 12,9 km/h (3 Bft)
29.07.2018 13:21 25,4 C 50 % 1012,4 hPa 0,0 l/m 3,0 km/h (1 Bft) N-NW 340 3 min 745 W/m 14,2 C 25,4 C 8,0 km/h (2 Bft)
29.07.2018 13:24 25,9 C 48 % 1012,4 hPa 0,0 l/m 4,9 km/h (1 Bft) SO 136 3 min 745 W/m 14,0 C 25,9 C 12,9 km/h (3 Bft)
29.07.2018 13:27 25,9 C 47 % 1012,3 hPa 0,0 l/m 5,0 km/h (1 Bft) SO 124 3 min 737 W/m 13,7 C 25,9 C 17,7 km/h (3 Bft)
29.07.2018 13:30 25,7 C 46 % 1012,4 hPa 0,0 l/m 4,9 km/h (1 Bft) O 98 3 min 679 W/m 13,2 C 25,7 C 11,3 km/h (2 Bft)
29.07.2018 13:33 25,4 C 47 % 1012,4 hPa 0,0 l/m 7,4 km/h (2 Bft) O-NO 75 3 min 814 W/m 13,3 C 25,2 C 17,7 km/h (3 Bft)
29.07.2018 13:36 25,4 C 46 % 1012,3 hPa 0,0 l/m 5,5 km/h (2 Bft) NO 35 3 min 638 W/m 12,9 C 25,4 C 11,3 km/h (2 Bft)
29.07.2018 13:39 25,4 C 47 % 1012,3 hPa 0,0 l/m 4,4 km/h (1 Bft) N 360 3 min 856 W/m 13,3 C 25,4 C 9,7 km/h (2 Bft)
29.07.2018 13:42 26,0 C 48 % 1012,2 hPa 0,0 l/m 7,6 km/h (2 Bft) N-NO 24 3 min 812 W/m 14,1 C 25,7 C 19,3 km/h (3 Bft)
29.07.2018 13:45 26,2 C 47 % 1012,2 hPa 0,0 l/m 5,9 km/h (2 Bft) O 90 3 min 770 W/m 14,0 C 26,2 C 14,5 km/h (3 Bft)
29.07.2018 13:48 26,1 C 46 % 1012,2 hPa 0,0 l/m 7,2 km/h (2 Bft) NO 53 3 min 737 W/m 13,6 C 25,9 C 16,1 km/h (3 Bft)
29.07.2018 13:51 26,2 C 46 % 1012,1 hPa 0,0 l/m 5,1 km/h (1 Bft) S-SO 167 3 min 789 W/m 13,6 C 26,2 C 14,5 km/h (3 Bft)
29.07.2018 13:54 26,7 C 46 % 1012,1 hPa 0,0 l/m 3,6 km/h (1 Bft) O-SO 105 3 min 796 W/m 14,1 C 26,7 C 16,1 km/h (3 Bft)
29.07.2018 13:57 26,8 C 45 % 1012,1 hPa 0,0 l/m 5,7 km/h (2 Bft) N 355 3 min 766 W/m 13,9 C 26,8 C 12,9 km/h (3 Bft)
29.07.2018 14:00 26,7 C 45 % 1012,0 hPa 0,0 l/m 5,9 km/h (2 Bft) S-SO 154 3 min 798 W/m 13,8 C 26,7 C 11,3 km/h (2 Bft)
29.07.2018 14:03 27,1 C 46 % 1012,1 hPa 0,0 l/m 5,2 km/h (1 Bft) O-SO 122 3 min 807 W/m 14,5 C 27,1 C 14,5 km/h (3 Bft)
29.07.2018 14:06 27,3 C 45 % 1012,0 hPa 0,0 l/m 4,7 km/h (1 Bft) O-SO 107 3 min 772 W/m 14,3 C 27,3 C 12,9 km/h (3 Bft)
29.07.2018 14:09 27,3 C 43 % 1011,9 hPa 0,0 l/m 5,6 km/h (2 Bft) O 96 3 min 784 W/m 13,6 C 27,3 C 20,9 km/h (4 Bft)
29.07.2018 14:12 27,1 C 43 % 1011,9 hPa 0,0 l/m 8,8 km/h (2 Bft) O-SO 111 3 min 780 W/m 13,4 C 26,7 C 29,0 km/h (5 Bft)
29.07.2018 14:15 27,1 C 41 % 1011,8 hPa 0,0 l/m 9,0 km/h (2 Bft) S 189 3 min 793 W/m 12,7 C 26,6 C 20,9 km/h (4 Bft)
29.07.2018 14:18 26,9 C 41 % 1011,8 hPa 0,0 l/m 8,2 km/h (2 Bft) SO 146 3 min 789 W/m 12,5 C 26,6 C 17,7 km/h (3 Bft)
29.07.2018 14:21 27,2 C 40 % 1011,8 hPa 0,0 l/m 8,4 km/h (2 Bft) O-NO 74 3 min 793 W/m 12,4 C 26,8 C 17,7 km/h (3 Bft)
29.07.2018 14:24 27,3 C 41 % 1011,8 hPa 0,0 l/m 6,0 km/h (2 Bft) O-SO 104 3 min 779 W/m 12,9 C 27,3 C 14,5 km/h (3 Bft)
29.07.2018 14:27 27,3 C 41 % 1011,8 hPa 0,0 l/m 8,0 km/h (2 Bft) S-SO 155 3 min 784 W/m 12,9 C 27,0 C 19,3 km/h (3 Bft)
29.07.2018 14:30 27,5 C 41 % 1011,8 hPa 0,0 l/m 9,1 km/h (2 Bft) O-SO 121 3 min 786 W/m 13,1 C 27,1 C 20,9 km/h (4 Bft)
29.07.2018 14:33 27,4 C 40 % 1011,8 hPa 0,0 l/m 9,2 km/h (2 Bft) S 169 3 min 779 W/m 12,6 C 26,9 C 17,7 km/h (3 Bft)
29.07.2018 14:36 27,2 C 42 % 1011,8 hPa 0,0 l/m 7,0 km/h (2 Bft) N 355 3 min 789 W/m 13,2 C 27,1 C 14,5 km/h (3 Bft)
29.07.2018 14:39 27,3 C 42 % 1011,8 hPa 0,0 l/m 10,9 km/h (2 Bft) S 177 3 min 786 W/m 13,2 C 26,6 C 19,3 km/h (3 Bft)
29.07.2018 14:42 27,6 C 41 % 1011,6 hPa 0,0 l/m 8,0 km/h (2 Bft) SO 142 3 min 782 W/m 13,1 C 27,3 C 16,1 km/h (3 Bft)
29.07.2018 14:45 27,7 C 42 % 1011,8 hPa 0,0 l/m 8,8 km/h (2 Bft) S-SO 147 3 min 793 W/m 13,6 C 27,3 C 19,3 km/h (3 Bft)
29.07.2018 14:48 27,4 C 42 % 1011,6 hPa 0,0 l/m 9,8 km/h (2 Bft) S-SO 165 3 min 807 W/m 13,3 C 26,8 C 16,1 km/h (3 Bft)
29.07.2018 14:51 27,8 C 41 % 1011,5 hPa 0,0 l/m 8,2 km/h (2 Bft) O-SO 119 3 min 863 W/m 13,3 C 27,5 C 17,7 km/h (3 Bft)
29.07.2018 14:54 27,7 C 42 % 1011,5 hPa 0,0 l/m 9,1 km/h (2 Bft) S-SO 157 3 min 737 W/m 13,6 C 27,3 C 20,9 km/h (4 Bft)
29.07.2018 14:57 27,8 C 42 % 1011,5 hPa 0,0 l/m 11,8 km/h (2 Bft) SO 132 0 min 408 W/m 13,7 C 27,0 C 27,4 km/h (5 Bft)
29.07.2018 15:00 27,6 C 42 % 1011,5 hPa 0,0 l/m 9,8 km/h (2 Bft) S 179 3 min 489 W/m 13,5 C 27,1 C 22,5 km/h (4 Bft)
29.07.2018 15:03 27,6 C 42 % 1011,4 hPa 0,0 l/m 10,8 km/h (2 Bft) S-SO 161 3 min 489 W/m 13,5 C 26,9 C 22,5 km/h (4 Bft)
29.07.2018 15:06 27,7 C 42 % 1011,4 hPa 0,0 l/m 12,5 km/h (2 Bft) O-SO 109 3 min 853 W/m 13,6 C 26,8 C 25,7 km/h (4 Bft)
29.07.2018 15:09 27,8 C 41 % 1011,4 hPa 0,0 l/m 11,6 km/h (2 Bft) S-SO 153 3 min 752 W/m 13,3 C 27,1 C 19,3 km/h (3 Bft)
29.07.2018 15:12 27,9 C 42 % 1011,4 hPa 0,0 l/m 7,3 km/h (2 Bft) O-NO 63 3 min 696 W/m 13,8 C 27,8 C 16,1 km/h (3 Bft)
29.07.2018 15:15 27,9 C 42 % 1011,5 hPa 0,0 l/m 9,1 km/h (2 Bft) S-SO 167 0 min 345 W/m 13,8 C 27,5 C 20,9 km/h (4 Bft)
29.07.2018 15:18 27,4 C 42 % 1011,4 hPa 0,0 l/m 9,4 km/h (2 Bft) S-SO 162 3 min 417 W/m 13,3 C 26,9 C 16,1 km/h (3 Bft)
29.07.2018 15:21 27,2 C 44 % 1011,4 hPa 0,0 l/m 8,2 km/h (2 Bft) S-SO 151 3 min 483 W/m 13,9 C 26,9 C 16,1 km/h (3 Bft)
29.07.2018 15:24 27,4 C 44 % 1011,4 hPa 0,0 l/m 8,7 km/h (2 Bft) S 173 3 min 552 W/m 14,0 C 27,0 C 14,5 km/h (3 Bft)
29.07.2018 15:27 27,6 C 43 % 1011,3 hPa 0,0 l/m 8,4 km/h (2 Bft) S-SO 163 3 min 494 W/m 13,9 C 27,3 C 19,3 km/h (3 Bft)
29.07.2018 15:30 27,4 C 43 % 1011,3 hPa 0,0 l/m 9,7 km/h (2 Bft) S-SO 148 0 min 332 W/m 13,7 C 26,9 C 17,7 km/h (3 Bft)
29.07.2018 15:33 27,4 C 43 % 1011,3 hPa 0,0 l/m 8,3 km/h (2 Bft) SO 142 3 min 550 W/m 13,7 C 27,1 C 19,3 km/h (3 Bft)
29.07.2018 15:36 27,2 C 44 % 1011,2 hPa 0,0 l/m 10,1 km/h (2 Bft) SO 131 0 min 364 W/m 13,9 C 26,6 C 17,7 km/h (3 Bft)
29.07.2018 15:39 27,5 C 43 % 1011,2 hPa 0,0 l/m 8,9 km/h (2 Bft) O-SO 117 3 min 712 W/m 13,8 C 27,1 C 16,1 km/h (3 Bft)
29.07.2018 15:42 27,4 C 43 % 1011,1 hPa 0,0 l/m 5,4 km/h (2 Bft) S 182 0 min 304 W/m 13,7 C 27,4 C 14,5 km/h (3 Bft)
29.07.2018 15:45 27,4 C 44 % 1011,1 hPa 0,0 l/m 8,4 km/h (2 Bft) S 187 0 min 388 W/m 14,0 C 27,1 C 17,7 km/h (3 Bft)
29.07.2018 15:48 27,3 C 44 % 1011,0 hPa 0,0 l/m 9,9 km/h (2 Bft) O-SO 121 0 min 287 W/m 14,0 C 26,7 C 19,3 km/h (3 Bft)
29.07.2018 15:51 27,3 C 45 % 1010,9 hPa 0,0 l/m 6,4 km/h (2 Bft) O-SO 103 0 min 274 W/m 14,3 C 27,3 C 12,9 km/h (3 Bft)
29.07.2018 15:54 27,6 C 45 % 1010,9 hPa 0,0 l/m 10,0 km/h (2 Bft) SO 140 3 min 425 W/m 14,6 C 27,0 C 19,3 km/h (3 Bft)
29.07.2018 15:57 27,8 C 44 % 1010,9 hPa 0,0 l/m 13,2 km/h (3 Bft) S-SO 160 3 min 742 W/m 14,4 C 26,9 C 24,1 km/h (4 Bft)
29.07.2018 16:00 27,9 C 44 % 1011,0 hPa 0,0 l/m 10,2 km/h (2 Bft) SO 130 0 min 369 W/m 14,5 C 27,3 C 25,7 km/h (4 Bft)
29.07.2018 16:03 27,8 C 44 % 1011,0 hPa 0,0 l/m 11,5 km/h (2 Bft) SO 145 3 min 464 W/m 14,4 C 27,1 C 25,7 km/h (4 Bft)
29.07.2018 16:06 27,8 C 44 % 1010,9 hPa 0,0 l/m 10,5 km/h (2 Bft) SO 128 3 min 610 W/m 14,4 C 27,2 C 20,9 km/h (4 Bft)
29.07.2018 16:09 27,7 C 45 % 1011,0 hPa 0,0 l/m 14,7 km/h (3 Bft) S 189 3 min 874 W/m 14,7 C 26,6 C 22,5 km/h (4 Bft)
29.07.2018 16:12 28,2 C 45 % 1010,9 hPa 0,0 l/m 11,0 km/h (2 Bft) S 172 3 min 786 W/m 15,1 C 27,6 C 19,3 km/h (3 Bft)
29.07.2018 16:15 28,6 C 45 % 1010,7 hPa 0,0 l/m 12,3 km/h (2 Bft) O-NO 69 3 min 682 W/m 15,5 C 27,9 C 22,5 km/h (4 Bft)
29.07.2018 16:18 29,0 C 43 % 1010,7 hPa 0,0 l/m 8,3 km/h (2 Bft) SO 141 3 min 701 W/m 15,1 C 28,8 C 17,7 km/h (3 Bft)
29.07.2018 16:21 28,8 C 43 % 1010,6 hPa 0,0 l/m 9,7 km/h (2 Bft) S 170 0 min 318 W/m 15,0 C 28,4 C 19,3 km/h (3 Bft)
29.07.2018 16:24 29,0 C 44 % 1010,6 hPa 0,0 l/m 9,7 km/h (2 Bft) SO 124 3 min 752 W/m 15,5 C 28,6 C 22,5 km/h (4 Bft)
29.07.2018 16:27 29,3 C 43 % 1010,6 hPa 0,0 l/m 10,2 km/h (2 Bft) S-SO 158 3 min 751 W/m 15,4 C 28,9 C 29,0 km/h (5 Bft)
29.07.2018 16:30 29,2 C 44 % 1010,6 hPa 0,0 l/m 8,0 km/h (2 Bft) S-SO 161 3 min 422 W/m 15,7 C 29,0 C 22,5 km/h (4 Bft)
29.07.2018 16:33 28,7 C 43 % 1010,6 hPa 0,0 l/m 13,1 km/h (3 Bft) S-SO 152 3 min 512 W/m 14,9 C 27,9 C 22,5 km/h (4 Bft)
29.07.2018 16:36 28,6 C 45 % 1010,5 hPa 0,0 l/m 7,8 km/h (2 Bft) O-SO 112 3 min 425 W/m 15,5 C 28,4 C 16,1 km/h (3 Bft)
29.07.2018 16:39 28,7 C 45 % 1010,4 hPa 0,0 l/m 3,5 km/h (1 Bft) SO 132 0 min 193 W/m 15,6 C 28,7 C 12,9 km/h (3 Bft)
29.07.2018 16:42 28,5 C 45 % 1010,3 hPa 0,0 l/m 10,3 km/h (2 Bft) SO 130 3 min 362 W/m 15,4 C 28,0 C 24,1 km/h (4 Bft)
29.07.2018 16:45 28,2 C 46 % 1010,2 hPa 0,0 l/m 8,9 km/h (2 Bft) O-SO 122 3 min 438 W/m 15,5 C 27,8 C 19,3 km/h (3 Bft)
29.07.2018 16:48 28,1 C 46 % 1010,2 hPa 0,0 l/m 9,9 km/h (2 Bft) O 101 3 min 385 W/m 15,4 C 27,6 C 19,3 km/h (3 Bft)
29.07.2018 16:51 28,0 C 47 % 1010,3 hPa 0,0 l/m 6,7 km/h (2 Bft) S-SO 157 3 min 346 W/m 15,6 C 28,0 C 16,1 km/h (3 Bft)
29.07.2018 16:54 28,1 C 47 % 1010,2 hPa 0,0 l/m 6,1 km/h (2 Bft) S-SW 200 0 min 297 W/m 15,7 C 28,1 C 16,1 km/h (3 Bft)
29.07.2018 16:57 28,1 C 46 % 1010,2 hPa 0,0 l/m 10,0 km/h (2 Bft) NO 41 0 min 327 W/m 15,4 C 27,6 C 20,9 km/h (4 Bft)
29.07.2018 17:00 27,9 C 47 % 1010,1 hPa 0,0 l/m 8,1 km/h (2 Bft) O 92 0 min 230 W/m 15,5 C 27,6 C 17,7 km/h (3 Bft)
29.07.2018 17:03 27,8 C 47 % 1010,1 hPa 0,0 l/m 9,9 km/h (2 Bft) SW 219 3 min 638 W/m 15,4 C 27,3 C 22,5 km/h (4 Bft)
29.07.2018 17:06 28,2 C 47 % 1010,1 hPa 0,0 l/m 10,7 km/h (2 Bft) O-SO 112 3 min 664 W/m 15,8 C 27,6 C 22,5 km/h (4 Bft)
29.07.2018 17:09 28,6 C 46 % 1010,1 hPa 0,0 l/m 9,1 km/h (2 Bft) SO 146 3 min 638 W/m 15,8 C 28,2 C 17,7 km/h (3 Bft)
29.07.2018 17:12 29,1 C 46 % 1010,0 hPa 0,0 l/m 8,5 km/h (2 Bft) O-SO 113 3 min 657 W/m 16,3 C 28,8 C 19,3 km/h (3 Bft)
29.07.2018 17:15 29,3 C 46 % 1010,0 hPa 0,0 l/m 7,5 km/h (2 Bft) O-SO 119 3 min 503 W/m 16,5 C 29,2 C 19,3 km/h (3 Bft)
29.07.2018 17:18 29,2 C 46 % 1010,0 hPa 0,0 l/m 8,0 km/h (2 Bft) SO 125 3 min 612 W/m 16,4 C 29,0 C 16,1 km/h (3 Bft)
29.07.2018 17:21 29,0 C 45 % 1010,0 hPa 0,0 l/m 12,2 km/h (2 Bft) SO 128 0 min 185 W/m 15,8 C 28,4 C 24,1 km/h (4 Bft)
29.07.2018 17:24 28,8 C 46 % 1010,0 hPa 0,0 l/m 7,9 km/h (2 Bft) SO 142 3 min 380 W/m 16,0 C 28,6 C 16,1 km/h (3 Bft)
29.07.2018 17:27 28,8 C 46 % 1010,0 hPa 0,0 l/m 8,9 km/h (2 Bft) SO 146 0 min 209 W/m 16,0 C 28,5 C 16,1 km/h (3 Bft)
29.07.2018 17:30 28,6 C 46 % 1010,0 hPa 0,0 l/m 11,6 km/h (2 Bft) O-SO 113 3 min 339 W/m 15,8 C 28,0 C 25,7 km/h (4 Bft)
29.07.2018 17:33 28,4 C 47 % 1010,0 hPa 0,0 l/m 10,1 km/h (2 Bft) S-SO 159 0 min 183 W/m 16,0 C 27,9 C 24,1 km/h (4 Bft)
29.07.2018 17:36 28,2 C 47 % 1010,0 hPa 0,0 l/m 9,8 km/h (2 Bft) O-SO 105 0 min 141 W/m 15,8 C 27,7 C 16,1 km/h (3 Bft)
29.07.2018 17:39 28,1 C 48 % 1009,9 hPa 0,0 l/m 10,3 km/h (2 Bft) S 178 0 min 118 W/m 16,0 C 27,6 C 19,3 km/h (3 Bft)
29.07.2018 17:42 27,9 C 48 % 1009,9 hPa 0,0 l/m 11,5 km/h (2 Bft) O 99 0 min 97 W/m 15,9 C 27,2 C 24,1 km/h (4 Bft)
29.07.2018 17:45 27,8 C 48 % 1009,9 hPa 0,0 l/m 9,0 km/h (2 Bft) S-SW 194 0 min 81 W/m 15,8 C 27,4 C 19,3 km/h (3 Bft)
29.07.2018 17:48 27,7 C 49 % 1009,9 hPa 0,0 l/m 7,6 km/h (2 Bft) S-SO 152 0 min 72 W/m 16,0 C 27,5 C 19,3 km/h (3 Bft)
29.07.2018 17:51 27,6 C 49 % 1009,9 hPa 0,0 l/m 6,5 km/h (2 Bft) S-SO 155 0 min 84 W/m 15,9 C 27,6 C 14,5 km/h (3 Bft)
29.07.2018 17:54 27,6 C 50 % 1009,8 hPa 0,0 l/m 6,6 km/h (2 Bft) O-SO 111 0 min 127 W/m 16,2 C 27,6 C 12,9 km/h (3 Bft)
29.07.2018 17:57 27,6 C 50 % 1009,9 hPa 0,0 l/m 6,6 km/h (2 Bft) SO 140 0 min 107 W/m 16,2 C 27,6 C 12,9 km/h (3 Bft)
29.07.2018 18:00 27,6 C 50 % 1009,9 hPa 0,0 l/m 7,3 km/h (2 Bft) S 173 0 min 146 W/m 16,2 C 27,4 C 12,9 km/h (3 Bft)
29.07.2018 18:03 27,7 C 51 % 1009,9 hPa 0,0 l/m 7,7 km/h (2 Bft) S-SO 160 0 min 181 W/m 16,6 C 27,5 C 17,7 km/h (3 Bft)
29.07.2018 18:06 27,7 C 50 % 1009,8 hPa 0,0 l/m 8,3 km/h (2 Bft) O 88 0 min 142 W/m 16,3 C 27,4 C 16,1 km/h (3 Bft)
29.07.2018 18:09 27,7 C 50 % 1009,8 hPa 0,0 l/m 10,3 km/h (2 Bft) S 174 0 min 229 W/m 16,3 C 27,1 C 19,3 km/h (3 Bft)
29.07.2018 18:12 27,9 C 50 % 1009,8 hPa 0,0 l/m 8,8 km/h (2 Bft) SO 142 3 min 330 W/m 16,5 C 27,5 C 17,7 km/h (3 Bft)
29.07.2018 18:15 28,2 C 49 % 1009,8 hPa 0,0 l/m 11,7 km/h (2 Bft) SO 130 3 min 260 W/m 16,5 C 27,5 C 25,7 km/h (4 Bft)
29.07.2018 18:18 28,2 C 49 % 1009,8 hPa 0,0 l/m 8,6 km/h (2 Bft) SO 135 0 min 185 W/m 16,5 C 27,9 C 17,7 km/h (3 Bft)
29.07.2018 18:21 28,2 C 49 % 1009,7 hPa 0,0 l/m 8,7 km/h (2 Bft) O 99 0 min 185 W/m 16,5 C 27,9 C 16,1 km/h (3 Bft)
29.07.2018 18:24 28,1 C 50 % 1009,8 hPa 0,0 l/m 6,5 km/h (2 Bft) S 178 0 min 142 W/m 16,7 C 28,1 C 12,9 km/h (3 Bft)
29.07.2018 18:27 28,0 C 50 % 1009,9 hPa 0,0 l/m 9,2 km/h (2 Bft) SO 139 0 min 120 W/m 16,6 C 27,6 C 16,1 km/h (3 Bft)
29.07.2018 18:30 27,9 C 50 % 1009,9 hPa 0,0 l/m 10,0 km/h (2 Bft) S-SO 165 0 min 109 W/m 16,5 C 27,4 C 27,4 km/h (5 Bft)
29.07.2018 18:33 27,8 C 51 % 1009,9 hPa 0,0 l/m 8,3 km/h (2 Bft) S-SO 167 0 min 107 W/m 16,7 C 27,5 C 19,3 km/h (3 Bft)
29.07.2018 18:36 27,7 C 51 % 1010,0 hPa 0,0 l/m 10,0 km/h (2 Bft) SO 136 0 min 98 W/m 16,6 C 27,1 C 17,7 km/h (3 Bft)
29.07.2018 18:39 27,7 C 52 % 1009,9 hPa 0,0 l/m 7,7 km/h (2 Bft) S 179 0 min 83 W/m 16,9 C 27,5 C 14,5 km/h (3 Bft)
29.07.2018 18:42 27,7 C 52 % 1009,9 hPa 0,0 l/m 7,8 km/h (2 Bft) S-SW 201 0 min 74 W/m 16,9 C 27,5 C 16,1 km/h (3 Bft)
29.07.2018 18:45 27,7 C 52 % 1009,9 hPa 0,0 l/m 8,5 km/h (2 Bft) SO 131 0 min 86 W/m 16,9 C 27,4 C 12,9 km/h (3 Bft)
29.07.2018 18:48 27,6 C 52 % 1009,9 hPa 0,0 l/m 9,3 km/h (2 Bft) S-SW 195 0 min 100 W/m 16,8 C 27,1 C 17,7 km/h (3 Bft)
29.07.2018 18:51 27,6 C 52 % 1009,9 hPa 0,0 l/m 9,1 km/h (2 Bft) S 184 0 min 104 W/m 16,8 C 27,2 C 14,5 km/h (3 Bft)
29.07.2018 18:54 27,6 C 52 % 1010,0 hPa 0,0 l/m 7,3 km/h (2 Bft) S 177 0 min 107 W/m 16,8 C 27,4 C 17,7 km/h (3 Bft)
29.07.2018 18:57 27,6 C 53 % 1010,0 hPa 0,0 l/m 9,2 km/h (2 Bft) S 186 0 min 97 W/m 17,1 C 27,1 C 14,5 km/h (3 Bft)
29.07.2018 19:00 27,6 C 53 % 1010,0 hPa 0,0 l/m 10,5 km/h (2 Bft) SO 139 0 min 88 W/m 17,1 C 27,0 C 16,1 km/h (3 Bft)
29.07.2018 19:03 27,6 C 53 % 1010,1 hPa 0,0 l/m 6,8 km/h (2 Bft) S 183 0 min 83 W/m 17,1 C 27,5 C 12,9 km/h (3 Bft)
29.07.2018 19:06 27,5 C 53 % 1010,1 hPa 0,0 l/m 6,2 km/h (2 Bft) S 186 0 min 72 W/m 17,0 C 27,5 C 9,7 km/h (2 Bft)
29.07.2018 19:09 27,5 C 47 % 1010,1 hPa 0,0 l/m 8,5 km/h (2 Bft) S 186 0 min 62 W/m 15,2 C 27,1 C 17,7 km/h (3 Bft)
29.07.2018 19:12 27,4 C 39 % 1010,1 hPa 0,0 l/m 11,8 km/h (2 Bft) S 189 0 min 49 W/m 12,2 C 26,6 C 25,7 km/h (4 Bft)
29.07.2018 19:15 27,5 C 37 % 1010,1 hPa 0,0 l/m 10,3 km/h (2 Bft) S-SW 202 0 min 42 W/m 11,5 C 26,9 C 17,7 km/h (3 Bft)
29.07.2018 19:18 27,5 C 36 % 1010,2 hPa 0,0 l/m 10,5 km/h (2 Bft) SW 229 0 min 40 W/m 11,1 C 26,9 C 20,9 km/h (4 Bft)
29.07.2018 19:21 27,4 C 36 % 1010,2 hPa 0,0 l/m 9,8 km/h (2 Bft) SW 227 0 min 40 W/m 11,0 C 26,8 C 14,5 km/h (3 Bft)
29.07.2018 19:24 27,4 C 37 % 1010,2 hPa 0,0 l/m 8,6 km/h (2 Bft) S 171 0 min 42 W/m 11,4 C 27,0 C 16,1 km/h (3 Bft)
29.07.2018 19:27 27,4 C 36 % 1010,3 hPa 0,0 l/m 9,8 km/h (2 Bft) S-SW 205 0 min 42 W/m 11,0 C 26,8 C 22,5 km/h (4 Bft)
29.07.2018 19:30 27,3 C 36 % 1010,3 hPa 0,0 l/m 8,8 km/h (2 Bft) S-SO 164 0 min 42 W/m 10,9 C 26,9 C 22,5 km/h (4 Bft)
29.07.2018 19:33 27,3 C 36 % 1010,4 hPa 0,0 l/m 10,2 km/h (2 Bft) S 184 0 min 42 W/m 10,9 C 26,7 C 16,1 km/h (3 Bft)
29.07.2018 19:36 27,2 C 36 % 1010,4 hPa 0,0 l/m 9,5 km/h (2 Bft) S-SW 208 0 min 47 W/m 10,8 C 26,7 C 19,3 km/h (3 Bft)
29.07.2018 19:39 27,2 C 35 % 1010,4 hPa 0,0 l/m 11,8 km/h (2 Bft) S 189 0 min 51 W/m 10,4 C 26,3 C 20,9 km/h (4 Bft)
29.07.2018 19:42 27,2 C 35 % 1010,4 hPa 0,0 l/m 9,5 km/h (2 Bft) SW 229 0 min 51 W/m 10,4 C 26,7 C 16,1 km/h (3 Bft)
29.07.2018 19:45 27,2 C 35 % 1010,4 hPa 0,0 l/m 8,6 km/h (2 Bft) S 184 0 min 51 W/m 10,4 C 26,8 C 14,5 km/h (3 Bft)
29.07.2018 19:48 27,2 C 35 % 1010,4 hPa 0,0 l/m 7,9 km/h (2 Bft) S-SW 196 0 min 53 W/m 10,4 C 26,9 C 16,1 km/h (3 Bft)
29.07.2018 19:51 27,2 C 35 % 1010,5 hPa 0,0 l/m 8,3 km/h (2 Bft) S-SW 211 0 min 51 W/m 10,4 C 26,9 C 14,5 km/h (3 Bft)
29.07.2018 19:54 27,1 C 35 % 1010,5 hPa 0,0 l/m 8,5 km/h (2 Bft) S-SW 207 0 min 49 W/m 10,3 C 26,7 C 17,7 km/h (3 Bft)
29.07.2018 19:57 27,1 C 35 % 1010,6 hPa 0,0 l/m 7,8 km/h (2 Bft) S-SW 206 0 min 46 W/m 10,3 C 26,8 C 20,9 km/h (4 Bft)
29.07.2018 20:00 27,0 C 35 % 1010,6 hPa 0,0 l/m 8,4 km/h (2 Bft) SW 217 0 min 39 W/m 10,2 C 26,6 C 16,1 km/h (3 Bft)
29.07.2018 20:03 26,9 C 36 % 1010,6 hPa 0,0 l/m 7,0 km/h (2 Bft) S-SW 203 0 min 9 W/m 10,6 C 26,8 C 12,9 km/h (3 Bft)
29.07.2018 20:06 26,8 C 36 % 1010,6 hPa 0,0 l/m 5,8 km/h (2 Bft) SW 214 0 min 5 W/m 10,5 C 26,8 C 11,3 km/h (2 Bft)
29.07.2018 20:09 26,7 C 37 % 1010,6 hPa 0,0 l/m 5,0 km/h (1 Bft) SW 227 0 min 5 W/m 10,8 C 26,7 C 9,7 km/h (2 Bft)
29.07.2018 20:12 26,7 C 38 % 1010,6 hPa 0,0 l/m 8,1 km/h (2 Bft) SW 234 0 min 0 W/m 11,2 C 26,4 C 16,1 km/h (3 Bft)
29.07.2018 20:15 26,6 C 39 % 1010,6 hPa 0,0 l/m 9,1 km/h (2 Bft) S-SW 197 0 min 16 W/m 11,5 C 26,1 C 14,5 km/h (3 Bft)
29.07.2018 20:18 26,5 C 40 % 1010,7 hPa 0,0 l/m 8,1 km/h (2 Bft) S-SO 148 0 min 12 W/m 11,8 C 26,2 C 11,3 km/h (2 Bft)
29.07.2018 20:21 26,3 C 43 % 1010,7 hPa 0,0 l/m 7,9 km/h (2 Bft) S-SW 198 0 min 9 W/m 12,7 C 26,0 C 12,9 km/h (3 Bft)
29.07.2018 20:24 26,2 C 44 % 1010,7 hPa 0,0 l/m 6,2 km/h (2 Bft) S-SW 192 0 min 7 W/m 13,0 C 26,2 C 9,7 km/h (2 Bft)
29.07.2018 20:27 26,1 C 45 % 1010,8 hPa 0,0 l/m 5,0 km/h (1 Bft) S-SW 198 0 min 7 W/m 13,2 C 26,1 C 8,0 km/h (2 Bft)
29.07.2018 20:30 25,9 C 46 % 1010,8 hPa 0,0 l/m 5,8 km/h (2 Bft) S-SW 211 0 min 7 W/m 13,4 C 25,9 C 9,7 km/h (2 Bft)
29.07.2018 20:33 25,8 C 46 % 1010,8 hPa 0,0 l/m 5,3 km/h (1 Bft) S-SW 209 0 min 11 W/m 13,3 C 25,8 C 9,7 km/h (2 Bft)
29.07.2018 20:36 25,7 C 45 % 1010,8 hPa 0,0 l/m 4,3 km/h (1 Bft) S-SW 210 0 min 11 W/m 12,9 C 25,7 C 8,0 km/h (2 Bft)
29.07.2018 20:39 25,7 C 45 % 1010,9 hPa 0,0 l/m 3,9 km/h (1 Bft) S-SW 211 0 min 11 W/m 12,9 C 25,7 C 6,4 km/h (2 Bft)
29.07.2018 20:42 25,6 C 45 % 1010,9 hPa 0,0 l/m 3,9 km/h (1 Bft) S-SW 211 0 min 11 W/m 12,8 C 25,6 C 6,4 km/h (2 Bft)
29.07.2018 20:45 25,5 C 45 % 1010,9 hPa 0,0 l/m 4,9 km/h (1 Bft) S-SW 211 0 min 11 W/m 12,7 C 25,5 C 8,0 km/h (2 Bft)
29.07.2018 20:48 25,4 C 45 % 1010,9 hPa 0,0 l/m 3,9 km/h (1 Bft) S-SW 211 0 min 9 W/m 12,6 C 25,4 C 6,4 km/h (2 Bft)
29.07.2018 20:51 25,3 C 46 % 1010,9 hPa 0,0 l/m 4,6 km/h (1 Bft) S-SW 211 0 min 9 W/m 12,8 C 25,3 C 6,4 km/h (2 Bft)
29.07.2018 20:54 25,2 C 47 % 1010,9 hPa 0,0 l/m 6,1 km/h (2 Bft) SW 217 0 min 7 W/m 13,1 C 25,2 C 11,3 km/h (2 Bft)
29.07.2018 20:57 25,2 C 47 % 1010,9 hPa 0,0 l/m 5,9 km/h (2 Bft) SW 217 0 min 7 W/m 13,1 C 25,2 C 9,7 km/h (2 Bft)
29.07.2018 21:00 25,1 C 47 % 1011,0 hPa 0,0 l/m 6,3 km/h (2 Bft) SW 228 0 min 7 W/m 13,0 C 25,1 C 9,7 km/h (2 Bft)
29.07.2018 21:03 25,0 C 48 % 1010,9 hPa 0,0 l/m 4,7 km/h (1 Bft) SW 217 0 min 7 W/m 13,2 C 25,0 C 8,0 km/h (2 Bft)
29.07.2018 21:06 25,0 C 48 % 1010,9 hPa 0,0 l/m 4,8 km/h (1 Bft) SW 219 0 min 7 W/m 13,2 C 25,0 C 8,0 km/h (2 Bft)
29.07.2018 21:09 24,9 C 47 % 1011,0 hPa 0,0 l/m 4,1 km/h (1 Bft) SW 219 0 min 7 W/m 12,8 C 24,9 C 8,0 km/h (2 Bft)
29.07.2018 21:12 24,9 C 48 % 1011,0 hPa 0,0 l/m 3,5 km/h (1 Bft) SW 219 0 min 7 W/m 13,1 C 24,9 C 6,4 km/h (2 Bft)
29.07.2018 21:15 24,8 C 48 % 1011,0 hPa 0,0 l/m 0,5 km/h (0 Bft) SW 219 0 min 7 W/m 13,0 C 24,8 C 3,2 km/h (1 Bft)
29.07.2018 21:18 24,8 C 49 % 1011,0 hPa 0,0 l/m 0,1 km/h (0 Bft) SW 219 0 min 7 W/m 13,3 C 24,8 C 3,2 km/h (1 Bft)
29.07.2018 21:21 24,7 C 49 % 1011,0 hPa 0,0 l/m 2,2 km/h (1 Bft) SW 219 0 min 5 W/m 13,3 C 24,7 C 3,2 km/h (1 Bft)
29.07.2018 21:24 24,6 C 50 % 1011,1 hPa 0,0 l/m 2,4 km/h (1 Bft) SW 219 0 min 0 W/m 13,5 C 24,6 C 4,8 km/h (1 Bft)
29.07.2018 21:27 24,4 C 51 % 1011,1 hPa 0,0 l/m 1,2 km/h (1 Bft) SW 219 0 min 0 W/m 13,6 C 24,4 C 4,8 km/h (1 Bft)
29.07.2018 21:30 24,3 C 52 % 1011,1 hPa 0,0 l/m 1,4 km/h (1 Bft) SW 219 0 min 0 W/m 13,8 C 24,3 C 3,2 km/h (1 Bft)
29.07.2018 21:33 24,2 C 52 % 1011,0 hPa 0,0 l/m 2,2 km/h (1 Bft) SW 219 0 min 0 W/m 13,7 C 24,2 C 4,8 km/h (1 Bft)
29.07.2018 21:36 24,1 C 54 % 1011,0 hPa 0,0 l/m 3,1 km/h (1 Bft) S-SO 163 0 min 0 W/m 14,2 C 24,1 C 6,4 km/h (2 Bft)
29.07.2018 21:39 23,9 C 57 % 1011,0 hPa 0,0 l/m 1,1 km/h (1 Bft) S-SO 163 0 min 0 W/m 14,9 C 23,9 C 3,2 km/h (1 Bft)
29.07.2018 21:42 23,7 C 57 % 1011,1 hPa 0,0 l/m 0,0 km/h (0 Bft) S-SO 163 0 min 0 W/m 14,7 C 23,7 C 0,0 km/h (0 Bft)
29.07.2018 21:45 23,6 C 55 % 1011,1 hPa 0,0 l/m 0,0 km/h (0 Bft) S-SO 163 0 min 0 W/m 14,0 C 23,6 C 1,6 km/h (1 Bft)
29.07.2018 21:48 23,6 C 55 % 1011,2 hPa 0,0 l/m 0,2 km/h (0 Bft) S-SO 163 0 min 0 W/m 14,0 C 23,6 C 1,6 km/h (1 Bft)
29.07.2018 21:51 23,5 C 55 % 1011,3 hPa 0,0 l/m 0,0 km/h (0 Bft) S-SO 163 0 min 0 W/m 13,9 C 23,5 C 0,0 km/h (0 Bft)
29.07.2018 21:54 23,5 C 55 % 1011,4 hPa 0,0 l/m 0,0 km/h (0 Bft) S-SO 163 0 min 0 W/m 13,9 C 23,5 C 0,0 km/h (0 Bft)
29.07.2018 21:57 23,4 C 56 % 1011,4 hPa 0,0 l/m 0,0 km/h (0 Bft) S-SO 163 0 min 0 W/m 14,1 C 23,4 C 0,0 km/h (0 Bft)
29.07.2018 22:00 23,3 C 57 % 1011,4 hPa 0,0 l/m 0,1 km/h (0 Bft) S-SO 163 0 min 0 W/m 14,3 C 23,3 C 1,6 km/h (1 Bft)
29.07.2018 22:03 23,2 C 55 % 1011,4 hPa 0,0 l/m 0,0 km/h (0 Bft) S-SO 163 0 min 0 W/m 13,6 C 23,2 C 0,0 km/h (0 Bft)
29.07.2018 22:06 23,1 C 57 % 1011,4 hPa 0,0 l/m 0,4 km/h (0 Bft) S-SO 163 0 min 0 W/m 14,1 C 23,1 C 1,6 km/h (1 Bft)
29.07.2018 22:09 22,9 C 59 % 1011,5 hPa 0,0 l/m 2,3 km/h (1 Bft) S-SO 163 0 min 0 W/m 14,5 C 22,9 C 3,2 km/h (1 Bft)
29.07.2018 22:12 22,8 C 61 % 1011,5 hPa 0,0 l/m 0,8 km/h (0 Bft) S-SO 162 0 min 0 W/m 14,9 C 22,8 C 6,4 km/h (2 Bft)
29.07.2018 22:15 22,7 C 61 % 1011,6 hPa 0,0 l/m 0,0 km/h (0 Bft) S-SO 162 0 min 0 W/m 14,8 C 22,7 C 0,0 km/h (0 Bft)
29.07.2018 22:18 22,6 C 61 % 1011,6 hPa 0,0 l/m 0,0 km/h (0 Bft) S-SO 162 0 min 0 W/m 14,7 C 22,6 C 0,0 km/h (0 Bft)
29.07.2018 22:21 22,5 C 61 % 1011,6 hPa 0,0 l/m 0,0 km/h (0 Bft) S-SO 162 0 min 0 W/m 14,6 C 22,5 C 0,0 km/h (0 Bft)
29.07.2018 22:24 22,4 C 61 % 1011,6 hPa 0,0 l/m 1,0 km/h (0 Bft) S-SO 162 0 min 0 W/m 14,5 C 22,4 C 6,4 km/h (2 Bft)
29.07.2018 22:27 22,3 C 60 % 1011,6 hPa 0,0 l/m 1,8 km/h (1 Bft) S-SO 162 0 min 0 W/m 14,2 C 22,3 C 3,2 km/h (1 Bft)
29.07.2018 22:30 22,3 C 61 % 1011,6 hPa 0,0 l/m 1,6 km/h (1 Bft) S-SO 162 0 min 0 W/m 14,4 C 22,3 C 3,2 km/h (1 Bft)
29.07.2018 22:33 22,2 C 61 % 1011,6 hPa 0,0 l/m 1,4 km/h (1 Bft) S-SO 162 0 min 0 W/m 14,3 C 22,2 C 3,2 km/h (1 Bft)
29.07.2018 22:36 22,2 C 60 % 1011,6 hPa 0,0 l/m 1,2 km/h (1 Bft) S-SO 162 0 min 0 W/m 14,1 C 22,2 C 6,4 km/h (2 Bft)
29.07.2018 22:39 22,1 C 60 % 1011,6 hPa 0,0 l/m 2,2 km/h (1 Bft) S-SO 162 0 min 0 W/m 14,0 C 22,1 C 6,4 km/h (2 Bft)
29.07.2018 22:42 22,1 C 61 % 1011,6 hPa 0,0 l/m 2,0 km/h (1 Bft) S-SO 162 0 min 0 W/m 14,2 C 22,1 C 3,2 km/h (1 Bft)
29.07.2018 22:45 22,0 C 61 % 1011,6 hPa 0,0 l/m 2,7 km/h (1 Bft) S-SO 161 0 min 0 W/m 14,1 C 22,0 C 6,4 km/h (2 Bft)
29.07.2018 22:48 22,0 C 61 % 1011,6 hPa 0,0 l/m 2,5 km/h (1 Bft) S-SO 159 0 min 0 W/m 14,1 C 22,0 C 6,4 km/h (2 Bft)
29.07.2018 22:51 21,9 C 61 % 1011,6 hPa 0,0 l/m 2,7 km/h (1 Bft) S-SO 159 0 min 0 W/m 14,0 C 21,9 C 6,4 km/h (2 Bft)
29.07.2018 22:54 21,9 C 61 % 1011,6 hPa 0,0 l/m 1,6 km/h (1 Bft) S-SO 159 0 min 0 W/m 14,0 C 21,9 C 3,2 km/h (1 Bft)
29.07.2018 22:57 21,8 C 60 % 1011,6 hPa 0,0 l/m 1,2 km/h (1 Bft) S-SO 159 0 min 0 W/m 13,7 C 21,8 C 3,2 km/h (1 Bft)
29.07.2018 23:00 21,8 C 60 % 1011,7 hPa 0,0 l/m 0,2 km/h (0 Bft) S-SO 159 0 min 0 W/m 13,7 C 21,8 C 1,6 km/h (1 Bft)
29.07.2018 23:03 21,8 C 60 % 1011,6 hPa 0,0 l/m 0,0 km/h (0 Bft) S-SO 159 0 min 0 W/m 13,7 C 21,8 C 0,0 km/h (0 Bft)
29.07.2018 23:06 21,7 C 60 % 1011,6 hPa 0,0 l/m 0,0 km/h (0 Bft) S-SO 159 0 min 0 W/m 13,6 C 21,7 C 0,0 km/h (0 Bft)
29.07.2018 23:09 21,7 C 61 % 1011,6 hPa 0,0 l/m 0,0 km/h (0 Bft) S-SO 159 0 min 0 W/m 13,8 C 21,7 C 0,0 km/h (0 Bft)
29.07.2018 23:12 21,6 C 61 % 1011,6 hPa 0,0 l/m 0,2 km/h (0 Bft) S-SO 159 0 min 0 W/m 13,7 C 21,6 C 1,6 km/h (1 Bft)
29.07.2018 23:15 21,6 C 61 % 1011,6 hPa 0,0 l/m 0,0 km/h (0 Bft) S-SO 159 0 min 0 W/m 13,7 C 21,6 C 0,0 km/h (0 Bft)
29.07.2018 23:18 21,6 C 62 % 1011,6 hPa 0,0 l/m 0,0 km/h (0 Bft) S-SO 159 0 min 0 W/m 14,0 C 21,6 C 1,6 km/h (1 Bft)
29.07.2018 23:21 21,5 C 62 % 1011,6 hPa 0,0 l/m 0,0 km/h (0 Bft) S-SO 159 0 min 0 W/m 13,9 C 21,5 C 0,0 km/h (0 Bft)
29.07.2018 23:24 21,5 C 62 % 1011,7 hPa 0,0 l/m 0,0 km/h (0 Bft) S-SO 159 0 min 0 W/m 13,9 C 21,5 C 0,0 km/h (0 Bft)
29.07.2018 23:27 21,5 C 62 % 1011,8 hPa 0,0 l/m 0,0 km/h (0 Bft) S-SO 159 0 min 0 W/m 13,9 C 21,5 C 0,0 km/h (0 Bft)
29.07.2018 23:30 21,4 C 62 % 1011,8 hPa 0,0 l/m 0,0 km/h (0 Bft) S-SO 159 0 min 0 W/m 13,8 C 21,4 C 0,0 km/h (0 Bft)
29.07.2018 23:33 21,4 C 63 % 1011,8 hPa 0,0 l/m 0,0 km/h (0 Bft) S-SO 159 0 min 0 W/m 14,1 C 21,4 C 0,0 km/h (0 Bft)
29.07.2018 23:36 21,4 C 63 % 1011,8 hPa 0,0 l/m 1,0 km/h (0 Bft) S-SO 159 0 min 0 W/m 14,1 C 21,4 C 3,2 km/h (1 Bft)
29.07.2018 23:39 21,4 C 62 % 1011,8 hPa 0,0 l/m 3,5 km/h (1 Bft) S-SO 155 0 min 0 W/m 13,8 C 21,4 C 6,4 km/h (2 Bft)
29.07.2018 23:42 21,5 C 61 % 1011,9 hPa 0,0 l/m 4,3 km/h (1 Bft) SO 140 0 min 0 W/m 13,7 C 21,5 C 11,3 km/h (2 Bft)
29.07.2018 23:45 21,6 C 60 % 1011,9 hPa 0,0 l/m 4,3 km/h (1 Bft) SO 144 0 min 0 W/m 13,5 C 21,6 C 8,0 km/h (2 Bft)
29.07.2018 23:48 21,7 C 62 % 1012,0 hPa 0,0 l/m 4,1 km/h (1 Bft) S-SO 147 0 min 0 W/m 14,1 C 21,7 C 6,4 km/h (2 Bft)
29.07.2018 23:51 21,7 C 62 % 1012,0 hPa 0,0 l/m 2,8 km/h (1 Bft) S-SO 147 0 min 0 W/m 14,1 C 21,7 C 6,4 km/h (2 Bft)
29.07.2018 23:54 21,7 C 61 % 1012,0 hPa 0,0 l/m 3,4 km/h (1 Bft) S-SO 147 0 min 0 W/m 13,8 C 21,7 C 4,8 km/h (1 Bft)
29.07.2018 23:57 21,7 C 62 % 1012,0 hPa 0,0 l/m 2,0 km/h (1 Bft) S-SO 147 0 min 0 W/m 14,1 C 21,7 C 4,8 km/h (1 Bft)
_ Min-Zeit 05:48 19:39 18:21 - 02:00 - - - - 20:00 03:00 21:42
Minimum _ 14,6 C 35 % 1009,7 hPa - 0,0 km/h (0 Bft) - - - - 10,2 C 14,0 C 0,0 km/h (0 Bft)
_ Max-Zeit 16:27 05:57 09:00 00:00 16:09 - - 05:48 16:09 18:57 17:15 14:12
Maximum _ 29,3 C 86 % 1013,7 hPa 0,0 l/m 14,7 km/h
S (3 Bft)
- - 3 min 874 W/m 17,1 C 29,2 C 29,0 km/h
O-NO (5 Bft)
Durchschnitt _ 22,0 C 61 % 1012,0 hPa #0,0 l/m 5,5 km/h (2 Bft) S-SO - #7:21 h 338 W/m 13,6 C 21,8 C 11,3 km/h (2 Bft)
2018 Cux-Wetter.de -Die Nutzung der Wetterdaten nur mit ausdrcklicher Genehmigung